FW3681 Weather Reports


Display with metric or nautical units.
time (UTC)temp
F
wind
direction
speed
MPH
gust
MPH
rain 1hr
in
rain 24hr
in
rain mn
in
humidity
%
barometer
mb
20260901011859 84 302 0.0 2.0 0.00 0.00 0.00 68 1017.1
20260901011559 84 314 0.0 2.0 0.00 0.00 0.00 68 1017.0
20260901011500 84 314 0.0 2.0 0.00 0.00 0.00 68 1017.0
20260901011259 84 314 0.0 2.0 0.00 0.00 0.00 68 1016.9
20260901011159 84 307 0.0 2.0 0.00 0.00 0.00 68 1016.9
20260901011059 84 283 0.0 2.0 0.00 0.00 0.00 68 1016.9
20260901010800 84 336 0.0 2.0 0.00 0.00 0.00 68 1016.9
20260901010659 84 336 0.0 2.0 0.00 0.00 0.00 68 1017.0
20260901010600 84 299 0.0 2.0 0.00 0.00 0.00 68 1016.9
20260901010501 85 272 0.0 2.0 0.00 0.00 0.00 68 1016.9
20260901010359 85 272 0.0 2.0 0.00 0.00 0.00 68 1016.9
20260901010259 85 272 0.0 2.0 0.00 0.00 0.00 67 1016.8
20260901010200 85 286 0.0 2.0 0.00 0.00 0.00 67 1016.7
20260901010059 85 286 0.0 2.0 0.00 0.00 0.00 67 1016.7
20260901010004 85 285 0.0 2.0 0.00 0.00 0.00 67 1016.7
20260901005758 85 289 0.0 2.0 0.00 0.00 0.00 67 1016.8
20260901005658 85 295 2.0 2.0 0.00 0.00 0.00 67 1016.7
20260901005459 85 314 0.0 1.0 0.00 0.00 0.00 67 1016.7
20260901005357 85 314 0.0 1.0 0.00 0.00 0.00 67 1016.7
20260901005158 85 304 0.0 1.0 0.00 0.00 0.00 67 1016.8
20260901005058 85 304 0.0 2.0 0.00 0.00 0.00 67 1016.8
20260901004858 85 295 0.0 2.0 0.00 0.00 0.00 66 1016.7
20260901004758 85 286 0.0 2.0 0.00 0.00 0.00 67 1016.6
20260901004658 85 322 0.0 2.0 0.00 0.00 0.00 66 1016.6
20260901004558 85 322 0.0 2.0 0.00 0.00 0.00 66 1016.7
20260901004458 85 322 0.0 2.0 0.00 0.00 0.00 66 1016.6
20260901004359 85 322 0.0 2.0 0.00 0.00 0.00 66 1016.6
20260901004258 85 322 0.0 2.0 0.00 0.00 0.00 66 1016.6
20260901004158 85 316 1.0 2.0 0.00 0.00 0.00 66 1016.6
20260901004058 85 295 0.0 2.0 0.00 0.00 0.00 65 1016.6
20260901004000 85 296 0.0 2.0 0.00 0.00 0.00 65 1016.6
20260901003858 86 1 0.0 2.0 0.00 0.00 0.00 65 1016.7
20260901003757 86 307 0.0 0.0 0.00 0.00 0.00 65 1016.7
20260901003558 86 307 0.0 1.0 0.00 0.00 0.00 65 1016.7
20260901003357 86 307 0.0 2.0 0.00 0.00 0.00 65 1016.7
20260901003258 86 307 0.0 2.0 0.00 0.00 0.00 64 1016.7
20260901003158 86 307 0.0 2.0 0.00 0.00 0.00 64 1016.7
20260901003001 86 296 0.0 2.0 0.00 0.00 0.00 64 1016.6
20260901002857 86 296 0.0 2.0 0.00 0.00 0.00 64 1016.6
20260901002758 86 300 1.0 2.0 0.00 0.00 0.00 64 1016.6
20260901002558 86 329 0.0 2.0 0.00 0.00 0.00 64 1016.6
20260901002458 86 313 0.0 2.0 0.00 0.00 0.00 64 1016.5
20260901002358 86 294 0.0 2.0 0.00 0.00 0.00 64 1016.5
20260901002258 86 294 0.0 2.0 0.00 0.00 0.00 63 1016.5
20260901002159 87 294 0.0 2.0 0.00 0.00 0.00 63 1016.6
20260901002058 87 294 0.0 2.0 0.00 0.00 0.00 63 1016.5
20260901002001 87 294 0.0 2.0 0.00 0.00 0.00 63 1016.6
20260901001857 87 294 0.0 2.0 0.00 0.00 0.00 63 1016.6
20260901001758 87 294 0.0 2.0 0.00 0.00 0.00 62 1016.5
20260901001657 87 294 0.0 2.0 0.00 0.00 0.00 62 1016.5
20260901001558 87 359 0.0 2.0 0.00 0.00 0.00 62 1016.5
20260901001458 87 29 1.0 3.0 0.00 0.00 0.00 62 1016.5
20260901001358 87 342 0.0 3.0 0.00 0.00 0.00 62 1016.5
20260901001259 87 342 0.0 3.0 0.00 0.00 0.00 62 1016.5
20260901001158 87 342 0.0 3.0 0.00 0.00 0.00 62 1016.4
20260901001058 87 336 0.0 3.0 0.00 0.00 0.00 62 1016.4
20260901001001 87 336 0.0 3.0 0.00 0.00 0.00 62 1016.4
20260901000858 87 336 0.0 3.0 0.00 0.00 0.00 62 1016.5
20260901000658 87 324 1.0 3.0 0.00 0.00 0.00 62 1016.4
20260901000558 87 331 0.0 2.0 0.00 0.00 0.00 62 1016.4
20260901000459 87 359 0.0 2.0 0.00 0.00 0.00 62 1016.5
20260901000358 87 347 1.0 3.0 0.00 0.00 0.00 62 1016.4
20260901000259 87 323 0.0 4.0 0.00 0.00 0.00 61 1016.4
20260901000158 87 303 1.0 4.0 0.00 0.00 0.00 61 1016.4
20260901000058 88 319 0.0 4.0 0.00 0.00 0.00 61 1016.3
20260901000004 88 319 1.0 4.0 0.00 0.00 0.00 61 1016.3
20260831235858 88 333 0.0 4.0 0.00 0.00 0.00 61 1016.3
20260831235759 88 340 0.0 4.0 0.00 0.00 0.00 61 1016.3
20260831235659 88 107 0.0 4.0 0.00 0.00 0.00 61 1016.3
20260831235558 88 326 1.0 4.0 0.00 0.00 0.00 61 1016.3
20260831235502 88 65 0.0 4.0 0.00 0.00 0.00 61 1016.3
20260831235359 88 141 4.0 4.0 0.00 0.00 0.00 61 1016.3
20260831235259 88 6 0.0 3.0 0.00 0.00 0.00 61 1016.3
20260831235158 88 319 0.0 3.0 0.00 0.00 0.00 61 1016.2
20260831235059 88 96 1.0 3.0 0.00 0.00 0.00 61 1016.2
20260831235002 88 325 0.0 3.0 0.00 0.00 0.00 61 1016.3
20260831234858 88 310 0.0 3.0 0.00 0.00 0.00 61 1016.2
20260831234759 88 354 2.0 3.0 0.00 0.00 0.00 61 1016.3
20260831234710 88 306 0.0 3.0 0.00 0.00 0.00 61 1016.3
20260831234500 88 360 2.0 3.0 0.00 0.00 0.00 60 1016.2
20260831234300 88 75 0.0 3.0 0.00 0.00 0.00 60 1016.3
20260831234159 88 76 1.0 3.0 0.00 0.00 0.00 60 1016.3
20260831234059 88 79 0.0 4.0 0.00 0.00 0.00 60 1016.3
20260831233859 88 49 1.0 4.0 0.00 0.00 0.00 60 1016.3
20260831233759 88 270 0.0 4.0 0.00 0.00 0.00 60 1016.2
20260831233658 89 354 0.0 4.0 0.00 0.00 0.00 60 1016.2
20260831233559 89 59 0.0 4.0 0.00 0.00 0.00 60 1016.2
20260831233503 89 136 1.0 4.0 0.00 0.00 0.00 60 1016.2
20260831233200 89 66 0.0 4.0 0.00 0.00 0.00 59 1016.2
20260831233059 89 22 3.0 4.0 0.00 0.00 0.00 59 1016.3
20260831233005 89 4 0.0 4.0 0.00 0.00 0.00 59 1016.3
20260831232859 89 350 1.0 4.0 0.00 0.00 0.00 59 1016.3
20260831232759 89 360 3.0 3.0 0.00 0.00 0.00 59 1016.3
20260831232659 89 324 2.0 3.0 0.00 0.00 0.00 59 1016.2
20260831232559 89 26 3.0 3.0 0.00 0.00 0.00 59 1016.2
20260831232500 89 70 0.0 3.0 0.00 0.00 0.00 59 1016.2
20260831232358 89 360 0.0 3.0 0.00 0.00 0.00 59 1016.2
20260831232300 89 345 0.0 3.0 0.00 0.00 0.00 58 1016.2
20260831232200 89 328 0.0 3.0 0.00 0.00 0.00 58 1016.1
20260831232059 89 8 0.0 3.0 0.00 0.00 0.00 58 1016.2
20260831232001 89 4 3.0 3.0 0.00 0.00 0.00 58 1016.2
20260831231858 89 340 2.0 3.0 0.00 0.00 0.00 58 1016.2
20260831231759 89 261 0.0 3.0 0.00 0.00 0.00 58 1016.3
20260831231700 89 335 2.0 4.0 0.00 0.00 0.00 58 1016.2
20260831231500 89 19 1.0 4.0 0.00 0.00 0.00 58 1016.3
20260831231259 89 106 0.0 4.0 0.00 0.00 0.00 58 1016.2
20260831231059 89 342 0.0 4.0 0.00 0.00 0.00 58 1016.3
20260831231004 89 70 0.0 4.0 0.00 0.00 0.00 58 1016.2
20260831230859 89 302 0.0 4.0 0.00 0.00 0.00 57 1016.3
20260831230800 90 60 3.0 4.0 0.00 0.00 0.00 57 1016.3
20260831230659 90 91 3.0 4.0 0.00 0.00 0.00 57 1016.2
20260831230558 90 342 3.0 4.0 0.00 0.00 0.00 57 1016.3
20260831230500 90 18 4.0 5.0 0.00 0.00 0.00 57 1016.2
20260831230159 90 340 0.0 5.0 0.00 0.00 0.00 57 1016.2
20260831230059 90 338 3.0 5.0 0.00 0.00 0.00 57 1016.3
20260831230004 90 338 0.0 5.0 0.00 0.00 0.00 57 1016.3
20260831225858 90 6 4.0 5.0 0.00 0.00 0.00 57 1016.3
20260831225759 90 6 4.0 5.0 0.00 0.00 0.00 56 1016.3
20260831225658 90 52 3.0 5.0 0.00 0.00 0.00 56 1016.3
20260831225558 90 19 3.0 4.0 0.00 0.00 0.00 56 1016.3
20260831225459 90 6 0.0 4.0 0.00 0.00 0.00 56 1016.3
20260831225359 90 342 1.0 4.0 0.00 0.00 0.00 56 1016.3
20260831225258 90 29 2.0 6.0 0.00 0.00 0.00 56 1016.3
20260831225158 90 111 1.0 6.0 0.00 0.00 0.00 56 1016.4
20260831225059 90 17 2.0 6.0 0.00 0.00 0.00 56 1016.4
20260831225004 90 31 1.0 6.0 0.00 0.00 0.00 55 1016.4
20260831224858 90 352 0.0 6.0 0.00 0.00 0.00 56 1016.3
20260831224800 90 347 2.0 6.0 0.00 0.00 0.00 55 1016.4
20260831224659 90 10 3.0 6.0 0.00 0.00 0.00 55 1016.5
20260831224559 90 34 0.0 6.0 0.00 0.00 0.00 55 1016.5
20260831224501 90 360 2.0 6.0 0.00 0.00 0.00 55 1016.4
20260831224203 90 13 2.0 6.0 0.00 0.00 0.00 55 1016.5
20260831224003 90 149 2.0 6.0 0.00 0.00 0.00 54 1016.5
20260831223900 91 41 2.0 6.0 0.00 0.00 0.00 54 1016.5
20260831223758 90 15 0.0 6.0 0.00 0.00 0.00 54 1016.4
20260831223559 91 34 3.0 6.0 0.00 0.00 0.00 54 1016.3
20260831223502 91 311 0.0 6.0 0.00 0.00 0.00 54 1016.3
20260831223359 91 44 2.0 6.0 0.00 0.00 0.00 54 1016.4
20260831223258 91 6 1.0 4.0 0.00 0.00 0.00 54 1016.3
20260831223059 91 46 2.0 4.0 0.00 0.00 0.00 53 1016.4
20260831223004 91 345 0.0 4.0 0.00 0.00 0.00 53 1016.4
20260831222859 91 347 1.0 6.0 0.00 0.00 0.00 53 1016.4
20260831222800 91 3 0.0 6.0 0.00 0.00 0.00 53 1016.4
20260831222659 91 77 0.0 6.0 0.00 0.00 0.00 53 1016.4
20260831222559 91 359 2.0 6.0 0.00 0.00 0.00 53 1016.4
20260831222501 91 357 2.0 7.0 0.00 0.00 0.00 53 1016.4
20260831222358 91 343 1.0 7.0 0.00 0.00 0.00 53 1016.3
20260831222259 91 26 2.0 7.0 0.00 0.00 0.00 53 1016.4
20260831222158 91 36 2.0 7.0 0.00 0.00 0.00 53 1016.5
20260831222059 91 25 3.0 7.0 0.00 0.00 0.00 53 1016.3
20260831222004 91 4 1.0 7.0 0.00 0.00 0.00 53 1016.5
20260831221859 91 39 3.0 7.0 0.00 0.00 0.00 53 1016.5
20260831221700 91 79 2.0 7.0 0.00 0.00 0.00 52 1016.5
20260831221503 91 356 5.0 5.0 0.00 0.00 0.00 52 1016.6
20260831221359 91 13 4.0 5.0 0.00 0.00 0.00 53 1016.6
20260831221259 91 10 4.0 5.0 0.00 0.00 0.00 53 1016.6
20260831221159 91 8 4.0 5.0 0.00 0.00 0.00 53 1016.5
20260831220901 91 43 4.0 5.0 0.00 0.00 0.00 53 1016.5
20260831220758 91 4 0.0 9.0 0.00 0.00 0.00 53 1016.5
20260831220700 91 352 3.0 9.0 0.00 0.00 0.00 53 1016.5
20260831220559 91 22 5.0 9.0 0.00 0.00 0.00 52 1016.5
20260831220500 91 34 3.0 9.0 0.00 0.00 0.00 52 1016.5
20260831220359 91 65 0.0 9.0 0.00 0.00 0.00 52 1016.5
20260831220259 91 86 2.0 9.0 0.00 0.00 0.00 52 1016.4
20260831220158 92 238 2.0 9.0 0.00 0.00 0.00 52 1016.4
20260831220002 92 13 0.0 9.0 0.00 0.00 0.00 52 1016.4
20260831215658 92 82 2.0 7.0 0.00 0.00 0.00 52 1016.5
20260831215500 92 15 3.0 7.0 0.00 0.00 0.00 52 1016.5
20260831215358 92 31 4.0 7.0 0.00 0.00 0.00 52 1016.5
20260831215259 92 360 4.0 7.0 0.00 0.00 0.00 53 1016.5
20260831215158 92 1 2.0 7.0 0.00 0.00 0.00 54 1016.4
20260831215100 92 32 5.0 7.0 0.00 0.00 0.00 53 1016.4
20260831215004 92 345 3.0 7.0 0.00 0.00 0.00 54 1016.5
20260831214859 92 354 4.0 7.0 0.00 0.00 0.00 53 1016.5
20260831214759 92 129 0.0 6.0 0.00 0.00 0.00 53 1016.5
20260831214700 92 57 2.0 6.0 0.00 0.00 0.00 53 1016.5
20260831214559 92 114 1.0 6.0 0.00 0.00 0.00 53 1016.5
20260831214500 92 351 3.0 6.0 0.00 0.00 0.00 53 1016.5
20260831214358 93 336 1.0 6.0 0.00 0.00 0.00 52 1016.5
20260831214258 93 27 4.0 6.0 0.00 0.00 0.00 52 1016.5
20260831214159 93 5 3.0 6.0 0.00 0.00 0.00 52 1016.5
20260831214059 93 69 2.0 6.0 0.00 0.00 0.00 52 1016.5
20260831214003 93 10 4.0 6.0 0.00 0.00 0.00 51 1016.5
20260831213859 93 51 3.0 6.0 0.00 0.00 0.00 51 1016.5
20260831213759 93 32 4.0 6.0 0.00 0.00 0.00 51 1016.5
20260831213658 93 4 4.0 7.0 0.00 0.00 0.00 51 1016.5
20260831213559 93 6 3.0 7.0 0.00 0.00 0.00 52 1016.6
20260831213501 93 98 2.0 7.0 0.00 0.00 0.00 51 1016.5
20260831213400 93 358 3.0 8.0 0.00 0.00 0.00 51 1016.5
20260831213258 93 360 3.0 8.0 0.00 0.00 0.00 52 1016.5
20260831213159 93 10 6.0 8.0 0.00 0.00 0.00 52 1016.6
20260831213004 93 343 3.0 8.0 0.00 0.00 0.00 51 1016.5
20260831212859 93 1 3.0 8.0 0.00 0.00 0.00 51 1016.5
20260831212759 93 352 5.0 8.0 0.00 0.00 0.00 51 1016.5
20260831212700 93 58 3.0 8.0 0.00 0.00 0.00 51 1016.6
20260831212558 93 46 3.0 8.0 0.00 0.00 0.00 50 1016.6
20260831212500 94 41 5.0 8.0 0.00 0.00 0.00 50 1016.6
20260831212358 94 15 5.0 7.0 0.00 0.00 0.00 50 1016.7
20260831212259 94 41 5.0 7.0 0.00 0.00 0.00 50 1016.7
20260831212159 94 349 3.0 7.0 0.00 0.00 0.00 51 1016.6
20260831212004 94 1 3.0 7.0 0.00 0.00 0.00 50 1016.6
20260831211900 94 48 2.0 7.0 0.00 0.00 0.00 49 1016.7
20260831211759 94 36 4.0 7.0 0.00 0.00 0.00 49 1016.7
20260831211559 94 8 6.0 7.0 0.00 0.00 0.00 49 1016.7
20260831211459 94 3 6.0 7.0 0.00 0.00 0.00 49 1016.7
20260831211359 94 349 5.0 7.0 0.00 0.00 0.00 48 1016.7
20260831211300 94 20 3.0 7.0 0.00 0.00 0.00 49 1016.7
20260831211158 94 346 4.0 8.0 0.00 0.00 0.00 48 1016.7
20260831211059 95 331 3.0 8.0 0.00 0.00 0.00 48 1016.8
20260831211002 95 340 5.0 8.0 0.00 0.00 0.00 48 1016.8
20260831210659 94 13 5.0 8.0 0.00 0.00 0.00 48 1016.7
20260831210559 94 85 4.0 8.0 0.00 0.00 0.00 49 1016.7
20260831210500 94 346 5.0 8.0 0.00 0.00 0.00 49 1016.7
20260831210359 94 1 8.0 8.0 0.00 0.00 0.00 50 1016.8
20260831210159 94 4 4.0 7.0 0.00 0.00 0.00 50 1016.8
20260831210100 94 22 2.0 7.0 0.00 0.00 0.00 51 1016.8
20260831210004 94 67 2.0 7.0 0.00 0.00 0.00 51 1016.8
20260831205759 93 10 5.0 7.0 0.00 0.00 0.00 51 1016.8
20260831205700 93 347 1.0 8.0 0.00 0.00 0.00 50 1016.8
20260831205559 93 33 5.0 8.0 0.00 0.00 0.00 51 1016.8
20260831205459 94 102 5.0 8.0 0.00 0.00 0.00 51 1016.8
20260831205359 94 34 1.0 8.0 0.00 0.00 0.00 51 1016.8
20260831205059 94 301 4.0 8.0 0.00 0.00 0.00 51 1016.8
20260831205003 95 8 3.0 8.0 0.00 0.00 0.00 49 1016.8
20260831204859 95 358 5.0 8.0 0.00 0.00 0.00 50 1016.8
20260831204758 95 8 3.0 7.0 0.00 0.00 0.00 50 1016.9
20260831204559 94 27 7.0 7.0 0.00 0.00 0.00 52 1016.8
20260831204501 94 4 6.0 7.0 0.00 0.00 0.00 52 1016.9
20260831204359 94 334 4.0 7.0 0.00 0.00 0.00 52 1016.8
20260831204259 94 340 2.0 7.0 0.00 0.00 0.00 51 1016.8
20260831204159 94 346 6.0 7.0 0.00 0.00 0.00 52 1016.8
20260831204059 93 351 5.0 7.0 0.00 0.00 0.00 52 1016.9
20260831204004 93 19 6.0 7.0 0.00 0.00 0.00 51 1016.9
20260831203759 94 20 3.0 7.0 0.00 0.00 0.00 51 1017.0
20260831203659 94 13 3.0 7.0 0.00 0.00 0.00 51 1017.0
20260831203558 94 4 5.0 7.0 0.00 0.00 0.00 51 1017.0
20260831203500 94 27 5.0 7.0 0.00 0.00 0.00 51 1017.0
20260831203400 94 32 2.0 7.0 0.00 0.00 0.00 51 1017.0
20260831203301 94 22 4.0 7.0 0.00 0.00 0.00 51 1017.0
20260831203159 93 6 5.0 7.0 0.00 0.00 0.00 52 1016.9
20260831203100 93 8 3.0 8.0 0.00 0.00 0.00 51 1017.0
20260831203004 94 20 4.0 8.0 0.00 0.00 0.00 52 1017.0
20260831202858 93 352 3.0 8.0 0.00 0.00 0.00 52 1017.0
20260831202758 93 331 2.0 9.0 0.00 0.00 0.00 51 1016.9
20260831202701 94 357 6.0 9.0 0.00 0.00 0.00 50 1016.9
20260831202504 95 10 3.0 9.0 0.00 0.00 0.00 49 1017.0
20260831202359 95 340 4.0 9.0 0.00 0.00 0.00 49 1017.0
20260831202259 95 20 6.0 9.0 0.00 0.00 0.00 50 1017.1
20260831202159 95 13 6.0 9.0 0.00 0.00 0.00 50 1017.0
20260831202058 95 5 6.0 9.0 0.00 0.00 0.00 50 1017.0
20260831202004 95 350 5.0 9.0 0.00 0.00 0.00 51 1017.0
20260831201900 94 338 3.0 7.0 0.00 0.00 0.00 51 1017.1
20260831201758 93 12 7.0 8.0 0.00 0.00 0.00 52 1017.0
20260831201659 93 341 3.0 8.0 0.00 0.00 0.00 52 1017.0
20260831201559 93 6 2.0 8.0 0.00 0.00 0.00 51 1017.1
20260831201358 94 20 2.0 8.0 0.00 0.00 0.00 50 1017.2
20260831201259 94 25 3.0 8.0 0.00 0.00 0.00 50 1017.1
20260831201200 95 360 5.0 8.0 0.00 0.00 0.00 49 1017.1
20260831201100 95 32 3.0 8.0 0.00 0.00 0.00 49 1017.1
20260831201004 95 20 5.0 8.0 0.00 0.00 0.00 50 1017.1
20260831200859 95 20 7.0 8.0 0.00 0.00 0.00 51 1017.1
20260831200758 95 3 4.0 6.0 0.00 0.00 0.00 52 1017.1
20260831200658 94 20 4.0 6.0 0.00 0.00 0.00 53 1017.2
20260831200500 93 19 4.0 6.0 0.00 0.00 0.00 53 1017.1
20260831200359 93 350 4.0 6.0 0.00 0.00 0.00 53 1017.3
20260831200159 93 315 3.0 6.0 0.00 0.00 0.00 53 1017.3
20260831200058 93 257 0.0 6.0 0.00 0.00 0.00 54 1017.2
20260831195759 92 3 3.0 7.0 0.00 0.00 0.00 53 1017.3
20260831195659 93 48 2.0 7.0 0.00 0.00 0.00 52 1017.3
20260831195558 94 8 3.0 7.0 0.00 0.00 0.00 51 1017.2
20260831195459 94 65 3.0 7.0 0.00 0.00 0.00 51 1017.2
20260831195358 94 319 4.0 7.0 0.00 0.00 0.00 52 1017.2
20260831195258 94 25 5.0 7.0 0.00 0.00 0.00 52 1017.3
20260831195158 94 309 3.0 8.0 0.00 0.00 0.00 54 1017.2
20260831195057 94 354 5.0 8.0 0.00 0.00 0.00 53 1017.2
20260831194859 94 8 4.0 8.0 0.00 0.00 0.00 52 1017.3
20260831194758 93 301 1.0 8.0 0.00 0.00 0.00 53 1017.2
20260831194559 94 342 4.0 8.0 0.00 0.00 0.00 50 1017.4
20260831194459 94 356 5.0 8.0 0.00 0.00 0.00 50 1017.3
20260831194358 95 41 5.0 8.0 0.00 0.00 0.00 50 1017.4
20260831194258 95 24 6.0 8.0 0.00 0.00 0.00 50 1017.4
20260831194157 95 4 6.0 8.0 0.00 0.00 0.00 51 1017.4
20260831194058 94 348 5.0 8.0 0.00 0.00 0.00 52 1017.5
20260831194001 94 302 2.0 8.0 0.00 0.00 0.00 51 1017.5
20260831193858 94 339 4.0 8.0 0.00 0.00 0.00 53 1017.5
20260831193758 94 354 3.0 8.0 0.00 0.00 0.00 53 1017.5
20260831193657 94 322 3.0 9.0 0.00 0.00 0.00 52 1017.5
20260831193558 94 334 3.0 9.0 0.00 0.00 0.00 52 1017.4
20260831193458 94 55 3.0 9.0 0.00 0.00 0.00 52 1017.5
20260831193357 94 17 5.0 9.0 0.00 0.00 0.00 51 1017.5
20260831193157 95 357 6.0 9.0 0.00 0.00 0.00 50 1017.5
20260831193058 95 4 7.0 9.0 0.00 0.00 0.00 50 1017.4
20260831193002 95 250 2.0 9.0 0.00 0.00 0.00 50 1017.5
20260831192758 96 13 7.0 9.0 0.00 0.00 0.00 50 1017.6
20260831192700 95 20 4.0 7.0 0.00 0.00 0.00 51 1017.6
20260831192559 95 353 3.0 7.0 0.00 0.00 0.00 52 1017.5
20260831192357 94 341 4.0 7.0 0.00 0.00 0.00 52 1017.5
20260831192258 94 8 5.0 8.0 0.00 0.00 0.00 51 1017.5
20260831192158 94 319 3.0 8.0 0.00 0.00 0.00 51 1017.5
20260831192057 94 8 5.0 8.0 0.00 0.00 0.00 51 1017.5
20260831192000 94 20 2.0 8.0 0.00 0.00 0.00 51 1017.6
20260831191658 95 27 5.0 8.0 0.00 0.00 0.00 49 1017.5
20260831191558 95 82 4.0 8.0 0.00 0.00 0.00 49 1017.6
20260831191507 95 37 3.0 8.0 0.00 0.00 0.00 50 1017.6
20260831191358 95 4 7.0 8.0 0.00 0.00 0.00 51 1017.6
20260831191257 95 6 8.0 8.0 0.00 0.00 0.00 51 1017.7
20260831191158 95 334 6.0 8.0 0.00 0.00 0.00 51 1017.6
20260831191003 94 8 6.0 8.0 0.00 0.00 0.00 53 1017.6
20260831190857 93 12 4.0 8.0 0.00 0.00 0.00 52 1017.6
20260831190758 93 356 5.0 8.0 0.00 0.00 0.00 52 1017.6
20260831190658 93 1 6.0 10.0 0.00 0.00 0.00 52 1017.6
20260831190558 94 341 3.0 10.0 0.00 0.00 0.00 52 1017.6
20260831190458 94 8 5.0 10.0 0.00 0.00 0.00 51 1017.5
20260831190358 94 336 4.0 10.0 0.00 0.00 0.00 50 1017.7
20260831190257 94 41 2.0 10.0 0.00 0.00 0.00 51 1017.6
20260831190158 94 4 7.0 10.0 0.00 0.00 0.00 53 1017.7
20260831190059 94 1 6.0 10.0 0.00 0.00 0.00 53 1017.6
20260831190002 94 333 5.0 10.0 0.00 0.00 0.00 53 1017.6
20260831185858 94 360 6.0 10.0 0.00 0.00 0.00 52 1017.6
20260831185758 94 358 7.0 8.0 0.00 0.00 0.00 53 1017.5
20260831185557 95 78 3.0 7.0 0.00 0.00 0.00 52 1017.5
20260831185400 95 6 4.0 7.0 0.00 0.00 0.00 51 1017.6
20260831185157 95 332 4.0 8.0 0.00 0.00 0.00 52 1017.7
20260831185057 95 348 5.0 8.0 0.00 0.00 0.00 53 1017.7
20260831184857 94 347 4.0 8.0 0.00 0.00 0.00 53 1017.6
20260831184758 94 6 5.0 8.0 0.00 0.00 0.00 54 1017.6
20260831184658 93 339 6.0 8.0 0.00 0.00 0.00 55 1017.7
20260831184557 93 79 3.0 8.0 0.00 0.00 0.00 55 1017.8
20260831184458 92 352 5.0 8.0 0.00 0.00 0.00 54 1017.7
20260831184257 93 348 6.0 8.0 0.00 0.00 0.00 52 1017.7
20260831184158 93 341 6.0 8.0 0.00 0.00 0.00 52 1017.7
20260831184058 93 324 7.0 8.0 0.00 0.00 0.00 52 1017.9
20260831184001 94 335 6.0 8.0 0.00 0.00 0.00 53 1017.8
20260831183857 93 3 7.0 7.0 0.00 0.00 0.00 53 1017.8
20260831183759 93 13 4.0 7.0 0.00 0.00 0.00 55 1017.8
20260831183657 92 4 7.0 7.0 0.00 0.00 0.00 55 1017.9
20260831183557 92 49 4.0 7.0 0.00 0.00 0.00 57 1017.8
20260831183500 92 4 5.0 7.0 0.00 0.00 0.00 56 1017.9
20260831183358 92 3 4.0 7.0 0.00 0.00 0.00 57 1017.9
20260831183258 92 36 0.0 7.0 0.00 0.00 0.00 56 1017.9
20260831183159 92 338 3.0 7.0 0.00 0.00 0.00 56 1017.8
20260831183057 92 360 2.0 7.0 0.00 0.00 0.00 57 1017.9
20260831182859 91 27 2.0 8.0 0.00 0.00 0.00 57 1018.0
20260831182758 91 359 4.0 8.0 0.00 0.00 0.00 57 1018.0
20260831182459 92 84 1.0 8.0 0.00 0.00 0.00 55 1018.0
20260831182358 92 30 3.0 8.0 0.00 0.00 0.00 54 1018.0
20260831182258 93 75 3.0 8.0 0.00 0.00 0.00 54 1018.1
20260831182157 93 20 1.0 8.0 0.00 0.00 0.00 55 1018.1
20260831182058 93 343 4.0 7.0 0.00 0.00 0.00 54 1018.0
20260831182000 92 335 4.0 8.0 0.00 0.00 0.00 55 1018.1
20260831181858 92 27 3.0 8.0 0.00 0.00 0.00 55 1018.0
20260831181757 92 53 3.0 8.0 0.00 0.00 0.00 55 1018.1
20260831181657 92 22 3.0 8.0 0.00 0.00 0.00 55 1018.0
20260831181600 92 58 3.0 8.0 0.00 0.00 0.00 56 1018.1
20260831181358 91 1 5.0 8.0 0.00 0.00 0.00 57 1018.1
20260831181258 91 11 5.0 8.0 0.00 0.00 0.00 56 1018.1
20260831181158 91 111 5.0 8.0 0.00 0.00 0.00 56 1018.1
20260831181058 91 103 4.0 8.0 0.00 0.00 0.00 56 1018.1
20260831181001 91 360 2.0 8.0 0.00 0.00 0.00 56 1018.1
20260831180859 91 6 6.0 8.0 0.00 0.00 0.00 56 1018.1
20260831180758 91 339 4.0 8.0 0.00 0.00 0.00 57 1018.1
20260831180658 91 338 3.0 7.0 0.00 0.00 0.00 56 1018.1
20260831180558 91 345 4.0 8.0 0.00 0.00 0.00 57 1018.0
20260831180459 92 339 5.0 13.0 0.00 0.00 0.00 56 1018.1
20260831180357 92 355 5.0 13.0 0.00 0.00 0.00 55 1018.1
20260831180158 93 43 3.0 13.0 0.00 0.00 0.00 54 1018.2
20260831175758 92 8 4.0 13.0 0.00 0.00 0.00 54 1018.3
20260831175657 93 334 6.0 13.0 0.00 0.00 0.00 52 1018.3
20260831175600 93 336 6.0 11.0 0.00 0.00 0.00 54 1018.3
20260831175358 93 347 2.0 9.0 0.00 0.00 0.00 55 1018.3
20260831175301 93 346 5.0 9.0 0.00 0.00 0.00 56 1018.3
20260831175158 92 6 5.0 9.0 0.00 0.00 0.00 56 1018.3
20260831175000 92 342 6.0 9.0 0.00 0.00 0.00 56 1018.4
20260831174758 93 360 7.0 8.0 0.00 0.00 0.00 56 1018.5
20260831174657 93 6 2.0 8.0 0.00 0.00 0.00 57 1018.5
20260831174557 93 321 4.0 8.0 0.00 0.00 0.00 56 1018.5
20260831174500 92 4 6.0 8.0 0.00 0.00 0.00 56 1018.6
20260831174358 92 347 5.0 8.0 0.00 0.00 0.00 57 1018.5
20260831174258 91 11 8.0 8.0 0.00 0.00 0.00 59 1018.5
20260831174158 91 346 6.0 8.0 0.00 0.00 0.00 58 1018.4
20260831174057 91 80 2.0 8.0 0.00 0.00 0.00 57 1018.5
20260831174000 91 324 0.0 8.0 0.00 0.00 0.00 55 1018.5
20260831173857 91 75 4.0 8.0 0.00 0.00 0.00 54 1018.5
20260831173758 92 60 0.0 8.0 0.00 0.00 0.00 54 1018.7
20260831173658 92 112 4.0 8.0 0.00 0.00 0.00 55 1018.6
20260831173557 92 115 5.0 8.0 0.00 0.00 0.00 57 1018.6
20260831173459 92 325 4.0 8.0 0.00 0.00 0.00 58 1018.5
20260831173358 91 91 1.0 8.0 0.00 0.00 0.00 58 1018.5
20260831173258 91 10 3.0 8.0 0.00 0.00 0.00 58 1018.6
20260831173156 92 349 3.0 8.0 0.00 0.00 0.00 56 1018.5
20260831173058 92 118 2.0 8.0 0.00 0.00 0.00 56 1018.5
20260831173000 92 323 3.0 8.0 0.00 0.00 0.00 56 1018.7
20260831172858 92 344 6.0 8.0 0.00 0.00 0.00 55 1018.7
20260831172758 93 340 6.0 8.0 0.00 0.00 0.00 55 1018.7
20260831172657 93 324 3.0 8.0 0.00 0.00 0.00 56 1018.7
20260831172557 93 360 7.0 8.0 0.00 0.00 0.00 58 1018.7
20260831172459 92 8 5.0 7.0 0.00 0.00 0.00 58 1018.7
20260831172358 92 346 5.0 7.0 0.00 0.00 0.00 58 1018.7
20260831172258 92 309 3.0 7.0 0.00 0.00 0.00 57 1018.7
20260831172157 92 20 6.0 7.0 0.00 0.00 0.00 58 1018.7
20260831172057 91 119 3.0 7.0 0.00 0.00 0.00 58 1018.7
20260831172003 91 352 4.0 7.0 0.00 0.00 0.00 58 1018.7
20260831171859 91 1 6.0 7.0 0.00 0.00 0.00 59 1018.7
20260831171757 91 339 4.0 7.0 0.00 0.00 0.00 58 1018.7
20260831171657 91 83 2.0 7.0 0.00 0.00 0.00 58 1018.7
20260831171458 91 360 6.0 7.0 0.00 0.00 0.00 58 1018.7
20260831171257 92 11 3.0 7.0 0.00 0.00 0.00 57 1018.7
20260831171158 92 8 3.0 7.0 0.00 0.00 0.00 57 1018.7
20260831171057 92 104 1.0 7.0 0.00 0.00 0.00 58 1018.8
20260831170857 91 331 2.0 7.0 0.00 0.00 0.00 59 1018.8
20260831170757 91 339 4.0 7.0 0.00 0.00 0.00 58 1018.7
20260831170658 91 358 3.0 7.0 0.00 0.00 0.00 58 1018.7
20260831170557 91 6 7.0 7.0 0.00 0.00 0.00 58 1018.7
20260831170357 91 34 2.0 8.0 0.00 0.00 0.00 59 1018.8
20260831170258 91 23 3.0 8.0 0.00 0.00 0.00 58 1018.8
20260831170158 91 336 4.0 8.0 0.00 0.00 0.00 57 1018.8
20260831170058 91 52 2.0 8.0 0.00 0.00 0.00 58 1018.9
20260831170002 91 13 6.0 8.0 0.00 0.00 0.00 59 1018.9
20260831165858 91 8 7.0 8.0 0.00 0.00 0.00 58 1018.9
20260831165758 91 358 4.0 8.0 0.00 0.00 0.00 57 1018.9
20260831165656 91 359 6.0 8.0 0.00 0.00 0.00 58 1019.0
20260831165558 90 5 3.0 8.0 0.00 0.00 0.00 58 1018.9
20260831165459 91 125 8.0 8.0 0.00 0.00 0.00 58 1019.0
20260831165357 91 72 4.0 7.0 0.00 0.00 0.00 61 1019.0
20260831165258 90 10 6.0 7.0 0.00 0.00 0.00 59 1019.0
20260831165158 91 325 3.0 7.0 0.00 0.00 0.00 59 1019.1
20260831165057 92 352 3.0 7.0 0.00 0.00 0.00 58 1019.0
20260831165000 92 319 1.0 7.0 0.00 0.00 0.00 59 1019.1
20260831164857 91 358 5.0 7.0 0.00 0.00 0.00 59 1019.0
20260831164758 91 353 6.0 7.0 0.00 0.00 0.00 60 1019.0
20260831164658 91 41 3.0 7.0 0.00 0.00 0.00 61 1019.1
20260831164558 90 13 1.0 8.0 0.00 0.00 0.00 60 1019.1
20260831164459 90 127 5.0 8.0 0.00 0.00 0.00 59 1019.1
20260831164058 90 345 3.0 8.0 0.00 0.00 0.00 60 1019.2
20260831164004 90 15 2.0 8.0 0.00 0.00 0.00 58 1019.2
20260831163857 90 8 5.0 8.0 0.00 0.00 0.00 57 1019.2
20260831163758 91 17 4.0 8.0 0.00 0.00 0.00 59 1019.1
20260831163557 91 32 4.0 8.0 0.00 0.00 0.00 58 1019.1
20260831163500 91 6 4.0 8.0 0.00 0.00 0.00 60 1019.1
20260831163357 90 349 6.0 8.0 0.00 0.00 0.00 61 1019.1
20260831163256 90 19 4.0 8.0 0.00 0.00 0.00 60 1019.2
20260831163057 90 335 4.0 8.0 0.00 0.00 0.00 61 1019.2
20260831163000 90 34 0.0 8.0 0.00 0.00 0.00 61 1019.2
20260831162857 90 65 1.0 8.0 0.00 0.00 0.00 61 1019.2
20260831162758 90 346 4.0 8.0 0.00 0.00 0.00 63 1019.2
20260831162657 89 335 4.0 8.0 0.00 0.00 0.00 63 1019.2
20260831162558 89 1 5.0 8.0 0.00 0.00 0.00 62 1019.2
20260831162459 89 4 6.0 8.0 0.00 0.00 0.00 62 1019.2
20260831162357 90 323 4.0 8.0 0.00 0.00 0.00 61 1019.2
20260831162257 90 4 4.0 7.0 0.00 0.00 0.00 59 1019.2
20260831162057 90 74 2.0 8.0 0.00 0.00 0.00 59 1019.2
20260831162000 90 67 5.0 8.0 0.00 0.00 0.00 59 1019.2
20260831161857 90 13 1.0 8.0 0.00 0.00 0.00 61 1019.2
20260831161757 90 353 3.0 8.0 0.00 0.00 0.00 60 1019.2
20260831161657 90 30 7.0 8.0 0.00 0.00 0.00 60 1019.2
20260831161558 89 14 4.0 8.0 0.00 0.00 0.00 61 1019.2
20260831161500 89 359 3.0 8.0 0.00 0.00 0.00 61 1019.2
20260831161358 89 8 4.0 8.0 0.00 0.00 0.00 62 1019.2
20260831161257 89 53 2.0 7.0 0.00 0.00 0.00 60 1019.2
20260831161058 89 73 3.0 7.0 0.00 0.00 0.00 60 1019.2
20260831160858 89 31 4.0 7.0 0.00 0.00 0.00 61 1019.4
20260831160758 89 83 4.0 7.0 0.00 0.00 0.00 61 1019.4
20260831160557 90 305 3.0 7.0 0.00 0.00 0.00 63 1019.4
20260831160500 90 337 4.0 7.0 0.00 0.00 0.00 62 1019.4
20260831160257 90 336 3.0 7.0 0.00 0.00 0.00 61 1019.3
20260831160158 91 351 5.0 7.0 0.00 0.00 0.00 61 1019.4
20260831155757 90 348 5.0 7.0 0.00 0.00 0.00 62 1019.4
20260831155657 90 67 4.0 7.0 0.00 0.00 0.00 62 1019.5
20260831155558 89 10 4.0 8.0 0.00 0.00 0.00 63 1019.5
20260831155458 89 38 4.0 9.0 0.00 0.00 0.00 63 1019.4
20260831155358 89 111 4.0 9.0 0.00 0.00 0.00 66 1019.4
20260831155257 89 336 4.0 9.0 0.00 0.00 0.00 66 1019.5
20260831155158 88 4 7.0 9.0 0.00 0.00 0.00 66 1019.4
20260831155059 88 328 4.0 9.0 0.00 0.00 0.00 66 1019.5
20260831154858 87 356 7.0 9.0 0.00 0.00 0.00 67 1019.5
20260831154758 87 356 4.0 9.0 0.00 0.00 0.00 66 1019.5
20260831154657 87 341 7.0 9.0 0.00 0.00 0.00 66 1019.4
20260831154459 88 337 6.0 8.0 0.00 0.00 0.00 66 1019.4
20260831154357 88 6 6.0 8.0 0.00 0.00 0.00 65 1019.5
20260831154257 89 331 7.0 8.0 0.00 0.00 0.00 65 1019.5
20260831154157 89 359 4.0 8.0 0.00 0.00 0.00 65 1019.5
20260831154057 89 349 4.0 8.0 0.00 0.00 0.00 66 1019.5
20260831153959 88 331 4.0 8.0 0.00 0.00 0.00 66 1019.5
20260831153858 88 327 4.0 8.0 0.00 0.00 0.00 67 1019.5
20260831153658 88 323 3.0 5.0 0.00 0.00 0.00 67 1019.5
20260831153558 88 308 4.0 5.0 0.00 0.00 0.00 66 1019.5
20260831153459 88 256 3.0 5.0 0.00 0.00 0.00 66 1019.5
20260831153356 89 342 4.0 5.0 0.00 0.00 0.00 67 1019.5
20260831153157 88 319 3.0 5.0 0.00 0.00 0.00 67 1019.5
20260831153057 88 357 2.0 6.0 0.00 0.00 0.00 68 1019.4
20260831152757 87 11 4.0 8.0 0.00 0.00 0.00 69 1019.5
20260831152657 87 53 3.0 8.0 0.00 0.00 0.00 69 1019.5
20260831152557 86 6 3.0 8.0 0.00 0.00 0.00 69 1019.5
20260831152457 87 48 0.0 8.0 0.00 0.00 0.00 68 1019.5
20260831152157 86 15 6.0 8.0 0.00 0.00 0.00 70 1019.5
20260831152057 86 329 6.0 8.0 0.00 0.00 0.00 69 1019.5
20260831151959 86 341 7.0 7.0 0.00 0.00 0.00 70 1019.5
20260831151757 87 343 4.0 7.0 0.00 0.00 0.00 70 1019.6
20260831151657 86 352 4.0 7.0 0.00 0.00 0.00 70 1019.6
20260831151556 86 1 6.0 6.0 0.00 0.00 0.00 71 1019.6
20260831151458 86 360 4.0 6.0 0.00 0.00 0.00 71 1019.6
20260831151357 86 338 4.0 6.0 0.00 0.00 0.00 70 1019.6
20260831151256 86 341 5.0 6.0 0.00 0.00 0.00 71 1019.6
20260831151156 86 355 5.0 6.0 0.00 0.00 0.00 71 1019.6
20260831150959 85 354 4.0 8.0 0.00 0.00 0.00 72 1019.6
20260831150857 85 327 6.0 8.0 0.00 0.00 0.00 73 1019.6
20260831150756 85 339 2.0 8.0 0.00 0.00 0.00 73 1019.6
20260831150656 85 346 3.0 8.0 0.00 0.00 0.00 74 1019.7
20260831150556 84 354 4.0 8.0 0.00 0.00 0.00 73 1019.6
20260831150458 84 338 5.0 8.0 0.00 0.00 0.00 73 1019.6
20260831150357 84 333 4.0 8.0 0.00 0.00 0.00 72 1019.6
20260831150257 85 328 4.0 8.0 0.00 0.00 0.00 72 1019.6
20260831150157 85 347 4.0 8.0 0.00 0.00 0.00 72 1019.6
20260831150056 85 340 5.0 7.0 0.00 0.00 0.00 72 1019.6
20260831145757 85 346 3.0 5.0 0.00 0.00 0.00 72 1019.6
20260831145656 85 203 2.0 5.0 0.00 0.00 0.00 73 1019.6
20260831145557 85 1 4.0 5.0 0.00 0.00 0.00 75 1019.6
20260831145458 84 352 4.0 5.0 0.00 0.00 0.00 75 1019.7
20260831145257 84 1 2.0 6.0 0.00 0.00 0.00 75 1019.6
20260831144959 84 5 3.0 6.0 0.00 0.00 0.00 75 1019.7
20260831144856 84 26 2.0 6.0 0.00 0.00 0.00 75 1019.6
20260831144756 83 60 2.0 6.0 0.00 0.00 0.00 75 1019.7
20260831144557 84 139 0.0 6.0 0.00 0.00 0.00 74 1019.6
20260831144459 84 103 0.0 5.0 0.00 0.00 0.00 74 1019.6
20260831144357 84 31 3.0 6.0 0.00 0.00 0.00 74 1019.6
20260831144056 84 5 5.0 7.0 0.00 0.00 0.00 75 1019.6
20260831143959 84 1 3.0 7.0 0.00 0.00 0.00 74 1019.6
20260831143856 84 340 3.0 7.0 0.00 0.00 0.00 75 1019.7
20260831143657 84 1 0.0 7.0 0.00 0.00 0.00 75 1019.7
20260831143557 84 352 3.0 7.0 0.00 0.00 0.00 75 1019.7
20260831143458 84 325 2.0 7.0 0.00 0.00 0.00 75 1019.6
20260831143256 84 352 3.0 5.0 0.00 0.00 0.00 77 1019.6
20260831143157 83 334 5.0 5.0 0.00 0.00 0.00 77 1019.7
20260831143057 83 22 1.0 6.0 0.00 0.00 0.00 76 1019.7
20260831143000 83 340 5.0 6.0 0.00 0.00 0.00 77 1019.6
20260831142856 83 332 3.0 6.0 0.00 0.00 0.00 77 1019.6
20260831142757 83 326 2.0 6.0 0.00 0.00 0.00 77 1019.7
20260831142656 83 316 4.0 6.0 0.00 0.00 0.00 77 1019.6
20260831142458 83 46 2.0 6.0 0.00 0.00 0.00 77 1019.6
20260831142357 83 3 5.0 6.0 0.00 0.00 0.00 77 1019.6
20260831142257 83 4 4.0 6.0 0.00 0.00 0.00 77 1019.6
20260831142156 83 329 2.0 5.0 0.00 0.00 0.00 78 1019.6
20260831141959 82 327 2.0 7.0 0.00 0.00 0.00 79 1019.6
20260831141757 82 8 1.0 7.0 0.00 0.00 0.00 79 1019.6
20260831141656 82 52 1.0 7.0 0.00 0.00 0.00 78 1019.6
20260831141556 82 108 3.0 7.0 0.00 0.00 0.00 78 1019.6
20260831141356 82 52 0.0 7.0 0.00 0.00 0.00 79 1019.6
20260831141257 81 330 1.0 7.0 0.00 0.00 0.00 79 1019.6
20260831141156 81 50 2.0 5.0 0.00 0.00 0.00 79 1019.6
20260831141056 81 348 3.0 5.0 0.00 0.00 0.00 80 1019.5
20260831140857 81 103 4.0 5.0 0.00 0.00 0.00 81 1019.5
20260831140757 81 354 3.0 5.0 0.00 0.00 0.00 80 1019.5
20260831140656 81 336 4.0 5.0 0.00 0.00 0.00 81 1019.5
20260831140557 81 348 3.0 5.0 0.00 0.00 0.00 81 1019.5
20260831140357 80 345 3.0 5.0 0.00 0.00 0.00 81 1019.6
20260831140256 81 338 3.0 5.0 0.00 0.00 0.00 81 1019.5
20260831140157 80 342 3.0 4.0 0.00 0.00 0.00 81 1019.6
20260831140057 80 359 3.0 4.0 0.00 0.00 0.00 81 1019.6
20260831135958 80 335 2.0 4.0 0.00 0.00 0.00 81 1019.5
20260831135857 80 141 1.0 4.0 0.00 0.00 0.00 81 1019.5
20260831135756 80 153 3.0 4.0 0.00 0.00 0.00 81 1019.4
20260831135656 80 122 0.0 4.0 0.00 0.00 0.00 81 1019.4
20260831135558 80 20 0.0 4.0 0.00 0.00 0.00 81 1019.4
20260831135458 80 10 1.0 4.0 0.00 0.00 0.00 81 1019.4
20260831135356 80 137 3.0 4.0 0.00 0.00 0.00 81 1019.4
20260831135257 80 25 2.0 4.0 0.00 0.00 0.00 81 1019.4
20260831135156 80 316 2.0 3.0 0.00 0.00 0.00 81 1019.4
20260831135056 80 298 1.0 3.0 0.00 0.00 0.00 82 1019.4
20260831135000 80 279 3.0 3.0 0.00 0.00 0.00 82 1019.4
20260831134856 80 6 2.0 3.0 0.00 0.00 0.00 82 1019.5
20260831134757 80 307 1.0 3.0 0.00 0.00 0.00 82 1019.4
20260831134656 80 330 1.0 3.0 0.00 0.00 0.00 82 1019.4
20260831134556 79 60 0.0 3.0 0.00 0.00 0.00 83 1019.3
20260831134458 79 299 1.0 4.0 0.00 0.00 0.00 83 1019.3
20260831134357 79 323 2.0 4.0 0.00 0.00 0.00 83 1019.3
20260831134256 79 144 2.0 4.0 0.00 0.00 0.00 84 1019.3
20260831134156 79 41 0.0 4.0 0.00 0.00 0.00 83 1019.3
20260831134056 79 200 0.0 4.0 0.00 0.00 0.00 84 1019.3
20260831134000 79 356 0.0 4.0 0.00 0.00 0.00 84 1019.4
20260831133856 78 25 2.0 4.0 0.00 0.00 0.00 84 1019.4
20260831133756 78 3 0.0 4.0 0.00 0.00 0.00 84 1019.4
20260831133556 78 328 1.0 3.0 0.00 0.00 0.00 85 1019.4
20260831133457 78 268 0.0 3.0 0.00 0.00 0.00 84 1019.4
20260831133256 78 356 2.0 4.0 0.00 0.00 0.00 85 1019.4
20260831133157 78 311 1.0 5.0 0.00 0.00 0.00 85 1019.5
20260831133056 78 287 2.0 6.0 0.00 0.00 0.00 85 1019.5
20260831132959 78 269 0.0 6.0 0.00 0.00 0.00 85 1019.5
20260831132756 78 335 0.0 6.0 0.00 0.00 0.00 85 1019.4
20260831132656 78 273 0.0 6.0 0.00 0.00 0.00 85 1019.4
20260831132556 78 147 2.0 6.0 0.00 0.00 0.00 85 1019.4
20260831132356 77 296 2.0 6.0 0.00 0.00 0.00 85 1019.4
20260831132256 77 144 3.0 6.0 0.00 0.00 0.00 85 1019.5
20260831132156 77 144 5.0 5.0 0.00 0.00 0.00 86 1019.4
20260831132056 77 144 1.0 4.0 0.00 0.00 0.00 86 1019.5
20260831132000 77 336 2.0 4.0 0.00 0.00 0.00 86 1019.5
20260831131856 77 298 3.0 5.0 0.00 0.00 0.00 86 1019.4
20260831131757 77 347 3.0 5.0 0.00 0.00 0.00 86 1019.5
20260831131657 77 330 3.0 5.0 0.00 0.00 0.00 86 1019.5
20260831131556 77 285 2.0 5.0 0.00 0.00 0.00 86 1019.5
20260831131458 77 326 1.0 5.0 0.00 0.00 0.00 86 1019.5
20260831131357 77 146 0.0 5.0 0.00 0.00 0.00 87 1019.4
20260831131257 77 1 1.0 5.0 0.00 0.00 0.00 87 1019.5
20260831131157 77 84 1.0 5.0 0.00 0.00 0.00 87 1019.5
20260831131057 77 296 0.0 5.0 0.00 0.00 0.00 87 1019.5
20260831131000 77 319 3.0 5.0 0.00 0.00 0.00 87 1019.4
20260831130856 76 20 1.0 5.0 0.00 0.00 0.00 87 1019.4
20260831130656 77 310 5.0 5.0 0.00 0.00 0.00 87 1019.4
20260831130557 77 137 0.0 4.0 0.00 0.00 0.00 87 1019.4
20260831130457 76 30 2.0 3.0 0.00 0.00 0.00 87 1019.4
20260831130356 76 302 0.0 3.0 0.00 0.00 0.00 88 1019.3
20260831130257 76 258 1.0 3.0 0.00 0.00 0.00 88 1019.3
20260831130157 76 303 0.0 3.0 0.00 0.00 0.00 88 1019.3
20260831130056 76 349 2.0 3.0 0.00 0.00 0.00 88 1019.2
20260831130000 76 295 2.0 3.0 0.00 0.00 0.00 88 1019.2
20260831125756 76 144 0.0 3.0 0.00 0.00 0.00 89 1019.3
20260831125657 76 294 2.0 3.0 0.00 0.00 0.00 89 1019.2
20260831125556 76 297 1.0 3.0 0.00 0.00 0.00 89 1019.3
20260831125357 76 279 3.0 3.0 0.00 0.00 0.00 89 1019.3
20260831125256 76 323 1.0 3.0 0.00 0.00 0.00 89 1019.3
20260831125158 75 158 1.0 4.0 0.00 0.00 0.00 89 1019.3
20260831125057 75 330 1.0 4.0 0.00 0.00 0.00 89 1019.3
20260831124958 75 29 0.0 4.0 0.00 0.00 0.00 90 1019.3
20260831124857 75 328 0.0 4.0 0.00 0.00 0.00 90 1019.2
20260831124758 75 286 2.0 4.0 0.00 0.00 0.00 90 1019.3
20260831124556 75 329 2.0 4.0 0.00 0.00 0.00 89 1019.3
20260831124357 75 142 0.0 4.0 0.00 0.00 0.00 90 1019.2
20260831124156 75 342 1.0 4.0 0.00 0.00 0.00 90 1019.4
20260831124056 75 328 2.0 4.0 0.00 0.00 0.00 90 1019.2
20260831123959 75 333 2.0 4.0 0.00 0.00 0.00 90 1019.2
20260831123856 75 300 0.0 4.0 0.00 0.00 0.00 90 1019.2
20260831123757 74 321 0.0 4.0 0.00 0.00 0.00 90 1019.2
20260831123656 74 337 2.0 4.0 0.00 0.00 0.00 90 1019.3
20260831123457 74 326 0.0 4.0 0.00 0.00 0.00 90 1019.3
20260831123357 74 345 3.0 4.0 0.00 0.00 0.00 90 1019.3
20260831123256 74 330 3.0 4.0 0.00 0.00 0.00 90 1019.3
20260831123157 74 1 3.0 4.0 0.00 0.00 0.00 90 1019.2
20260831123057 74 356 1.0 4.0 0.00 0.00 0.00 90 1019.4
20260831122959 74 337 0.0 4.0 0.00 0.00 0.00 90 1019.3
20260831122757 74 345 2.0 4.0 0.00 0.00 0.00 90 1019.3
20260831122656 74 3 1.0 4.0 0.00 0.00 0.00 90 1019.3
20260831122458 74 8 3.0 5.0 0.00 0.00 0.00 90 1019.1
20260831122356 74 10 1.0 5.0 0.00 0.00 0.00 90 1019.2
20260831122256 74 335 0.0 5.0 0.00 0.00 0.00 90 1019.2
20260831122057 74 349 2.0 5.0 0.00 0.00 0.00 90 1019.2
20260831121958 74 24 2.0 5.0 0.00 0.00 0.00 90 1019.1
20260831121857 74 319 2.0 5.0 0.00 0.00 0.00 90 1019.1
20260831121756 74 319 0.0 5.0 0.00 0.00 0.00 90 1019.1
20260831121555 74 351 3.0 4.0 0.00 0.00 0.00 90 1019.2
20260831121459 74 304 0.0 4.0 0.00 0.00 0.00 90 1019.1
20260831121355 74 328 3.0 4.0 0.00 0.00 0.00 90 1019.1
20260831121257 74 22 1.0 4.0 0.00 0.00 0.00 90 1019.1
20260831121158 74 354 3.0 4.0 0.00 0.00 0.00 90 1019.0
20260831121056 74 311 2.0 4.0 0.00 0.00 0.00 90 1019.1
20260831121000 74 356 3.0 4.0 0.00 0.00 0.00 90 1019.0
20260831120856 74 6 3.0 3.0 0.00 0.00 0.00 90 1019.0
20260831120756 74 300 1.0 3.0 0.00 0.00 0.00 90 1018.9
20260831120557 74 335 0.0 3.0 0.00 0.00 0.00 91 1018.8
20260831120457 74 312 0.0 3.0 0.00 0.00 0.00 91 1018.8
20260831120357 74 34 2.0 3.0 0.00 0.00 0.00 91 1018.8
20260831120157 74 135 2.0 3.0 0.00 0.00 0.00 91 1018.8
20260831120057 74 349 0.0 3.0 0.00 0.00 0.00 91 1018.8
20260831120000 74 323 1.0 3.0 0.00 0.00 0.00 91 1018.8
20260831115856 74 326 1.0 3.0 0.00 0.00 0.00 91 1018.7
20260831115758 74 319 2.0 3.0 0.00 0.00 0.00 91 1018.8
20260831115656 74 24 2.0 3.0 0.00 0.00 0.00 91 1018.7
20260831115557 74 338 0.0 3.0 0.00 0.00 0.00 91 1018.7
20260831115458 74 347 0.0 3.0 0.00 0.00 0.00 91 1018.7
20260831115357 74 356 0.0 4.0 0.00 0.00 0.00 91 1018.6
20260831115156 74 338 1.0 4.0 0.00 0.00 0.00 90 1018.7
20260831115057 74 333 2.0 4.0 0.00 0.00 0.00 90 1018.5
20260831114959 74 326 2.0 4.0 0.00 0.00 0.00 90 1018.6
20260831114857 73 13 0.0 4.0 0.00 0.00 0.00 90 1018.6
20260831114756 74 1 0.0 4.0 0.00 0.00 0.00 90 1018.6
20260831114556 73 359 3.0 4.0 0.00 0.00 0.00 90 1018.6
20260831114457 73 356 0.0 4.0 0.00 0.00 0.00 90 1018.5
20260831114356 73 353 1.0 3.0 0.00 0.00 0.00 90 1018.5
20260831114257 73 333 0.0 3.0 0.00 0.00 0.00 90 1018.6
20260831114156 73 8 2.0 3.0 0.00 0.00 0.00 90 1018.5
20260831114057 73 323 0.0 3.0 0.00 0.00 0.00 90 1018.5
20260831113959 73 349 2.0 3.0 0.00 0.00 0.00 90 1018.4
20260831113757 73 30 0.0 3.0 0.00 0.00 0.00 90 1018.4
20260831113657 73 331 1.0 3.0 0.00 0.00 0.00 90 1018.4
20260831113556 73 356 0.0 3.0 0.00 0.00 0.00 90 1018.3
20260831113458 73 347 2.0 3.0 0.00 0.00 0.00 90 1018.4
20260831113256 73 24 0.0 3.0 0.00 0.00 0.00 90 1018.3
20260831113158 73 358 1.0 3.0 0.00 0.00 0.00 90 1018.3
20260831113056 73 15 0.0 3.0 0.00 0.00 0.00 90 1018.3
20260831113000 73 41 0.0 3.0 0.00 0.00 0.00 90 1018.4
20260831112858 73 1 2.0 3.0 0.00 0.00 0.00 90 1018.3
20260831112756 73 55 0.0 3.0 0.00 0.00 0.00 90 1018.3
20260831112656 73 337 0.0 3.0 0.00 0.00 0.00 90 1018.3
20260831112557 73 356 0.0 3.0 0.00 0.00 0.00 90 1018.3
20260831112458 73 323 0.0 3.0 0.00 0.00 0.00 90 1018.2
20260831112256 73 323 2.0 3.0 0.00 0.00 0.00 90 1018.3
20260831112056 73 356 0.0 3.0 0.00 0.00 0.00 90 1018.3
20260831111959 73 34 0.0 3.0 0.00 0.00 0.00 90 1018.3
20260831111756 73 331 2.0 3.0 0.00 0.00 0.00 90 1018.3
20260831111657 73 323 1.0 3.0 0.00 0.00 0.00 90 1018.3
20260831111457 73 3 0.0 3.0 0.00 0.00 0.00 90 1018.3
20260831111357 73 23 2.0 3.0 0.00 0.00 0.00 90 1018.3
20260831111157 73 17 2.0 3.0 0.00 0.00 0.00 90 1018.2
20260831111057 73 328 0.0 3.0 0.00 0.00 0.00 90 1018.3
20260831110959 73 333 0.0 3.0 0.00 0.00 0.00 90 1018.2
20260831110856 73 351 2.0 3.0 0.00 0.00 0.00 90 1018.2
20260831110756 73 347 1.0 3.0 0.00 0.00 0.00 90 1018.2
20260831110656 74 340 0.0 3.0 0.00 0.00 0.00 90 1018.2
20260831110556 74 345 0.0 3.0 0.00 0.00 0.00 90 1018.2
20260831110458 73 29 0.0 3.0 0.00 0.00 0.00 90 1018.2
20260831110357 73 337 0.0 3.0 0.00 0.00 0.00 90 1018.2
20260831110257 73 338 0.0 3.0 0.00 0.00 0.00 90 1018.1
20260831110157 73 359 0.0 3.0 0.00 0.00 0.00 90 1018.2
20260831110057 73 351 3.0 3.0 0.00 0.00 0.00 90 1018.1
20260831110002 73 15 0.0 3.0 0.00 0.00 0.00 90 1018.1
20260831105758 73 25 0.0 3.0 0.00 0.00 0.00 90 1018.2
20260831105557 73 6 2.0 3.0 0.00 0.00 0.00 90 1018.0
20260831105458 73 360 1.0 3.0 0.00 0.00 0.00 90 1018.0
20260831105358 73 340 2.0 3.0 0.00 0.00 0.00 89 1018.0
20260831105258 73 330 0.0 3.0 0.00 0.00 0.00 89 1018.0
20260831105157 74 51 0.0 3.0 0.00 0.00 0.00 89 1018.0
20260831105057 74 23 2.0 3.0 0.00 0.00 0.00 89 1017.9
20260831105000 74 337 2.0 3.0 0.00 0.00 0.00 89 1017.9
20260831104858 74 333 0.0 3.0 0.00 0.00 0.00 89 1017.9
20260831104756 74 13 3.0 3.0 0.00 0.00 0.00 89 1017.9
20260831104659 74 344 3.0 3.0 0.00 0.00 0.00 89 1017.9
20260831104557 74 34 1.0 3.0 0.00 0.00 0.00 89 1017.9
20260831104459 74 6 3.0 3.0 0.00 0.00 0.00 89 1017.8
20260831104257 74 15 0.0 3.0 0.00 0.00 0.00 89 1017.8
20260831104158 74 36 1.0 3.0 0.00 0.00 0.00 89 1017.8
20260831104058 74 360 0.0 3.0 0.00 0.00 0.00 89 1017.8
20260831104004 74 30 0.0 3.0 0.00 0.00 0.00 89 1017.7
20260831103658 74 326 2.0 3.0 0.00 0.00 0.00 89 1017.7
20260831103558 74 333 0.0 3.0 0.00 0.00 0.00 89 1017.8
20260831103458 74 326 1.0 3.0 0.00 0.00 0.00 89 1017.8
20260831103358 74 354 1.0 3.0 0.00 0.00 0.00 89 1017.8
20260831103258 74 330 0.0 3.0 0.00 0.00 0.00 89 1017.8
20260831103157 74 333 0.0 3.0 0.00 0.00 0.00 89 1017.9
20260831103057 74 4 0.0 3.0 0.00 0.00 0.00 89 1017.9
20260831103000 74 345 1.0 3.0 0.00 0.00 0.00 89 1017.8
20260831102857 74 15 2.0 3.0 0.00 0.00 0.00 89 1017.8
20260831102658 74 5 3.0 3.0 0.00 0.00 0.00 89 1017.8
20260831102500 74 353 1.0 3.0 0.00 0.00 0.00 89 1017.8
20260831102358 74 20 0.0 3.0 0.00 0.00 0.00 89 1017.8
20260831102258 74 345 2.0 3.0 0.00 0.00 0.00 89 1017.7
20260831102157 74 10 0.0 3.0 0.00 0.00 0.00 89 1017.7
20260831102058 74 34 0.0 3.0 0.00 0.00 0.00 89 1017.7
20260831102004 74 347 1.0 3.0 0.00 0.00 0.00 89 1017.7
20260831101858 74 1 0.0 3.0 0.00 0.00 0.00 89 1017.7
20260831101757 74 351 0.0 4.0 0.00 0.00 0.00 89 1017.7
20260831101657 74 333 0.0 4.0 0.00 0.00 0.00 89 1017.7
20260831101458 74 22 2.0 4.0 0.00 0.00 0.00 89 1017.7
20260831101358 74 333 0.0 4.0 0.00 0.00 0.00 89 1017.7
20260831101258 74 333 0.0 4.0 0.00 0.00 0.00 89 1017.7
20260831101157 74 11 1.0 4.0 0.00 0.00 0.00 89 1017.7
20260831101000 74 335 0.0 4.0 0.00 0.00 0.00 89 1017.7
20260831100857 74 316 2.0 4.0 0.00 0.00 0.00 89 1017.7
20260831100758 74 345 2.0 4.0 0.00 0.00 0.00 89 1017.7
20260831100657 74 22 2.0 4.0 0.00 0.00 0.00 89 1017.7
20260831100557 74 337 0.0 4.0 0.00 0.00 0.00 89 1017.7
20260831100458 74 321 2.0 4.0 0.00 0.00 0.00 89 1017.7
20260831100356 74 3 2.0 4.0 0.00 0.00 0.00 89 1017.7
20260831100258 74 351 0.0 4.0 0.00 0.00 0.00 89 1017.6
20260831100159 74 342 2.0 4.0 0.00 0.00 0.00 89 1017.6
20260831100057 74 8 0.0 4.0 0.00 0.00 0.00 89 1017.6
20260831100004 74 349 2.0 4.0 0.00 0.00 0.00 88 1017.7
20260831095757 74 358 0.0 4.0 0.00 0.00 0.00 88 1017.5
20260831095657 74 326 2.0 4.0 0.00 0.00 0.00 88 1017.5
20260831095556 74 3 0.0 4.0 0.00 0.00 0.00 88 1017.5
20260831095458 74 345 0.0 4.0 0.00 0.00 0.00 88 1017.5
20260831095356 74 353 0.0 4.0 0.00 0.00 0.00 88 1017.5
20260831095256 74 11 0.0 3.0 0.00 0.00 0.00 88 1017.4
20260831095156 74 1 2.0 3.0 0.00 0.00 0.00 88 1017.5
20260831095057 74 328 2.0 3.0 0.00 0.00 0.00 88 1017.5
20260831094959 74 316 0.0 3.0 0.00 0.00 0.00 88 1017.4
20260831094856 74 4 3.0 3.0 0.00 0.00 0.00 88 1017.5
20260831094757 74 333 0.0 3.0 0.00 0.00 0.00 88 1017.4
20260831094656 74 330 2.0 3.0 0.00 0.00 0.00 88 1017.4
20260831094556 74 345 0.0 3.0 0.00 0.00 0.00 88 1017.4
20260831094457 74 329 1.0 3.0 0.00 0.00 0.00 88 1017.4
20260831094156 74 342 1.0 3.0 0.00 0.00 0.00 88 1017.4
20260831094057 74 347 1.0 3.0 0.00 0.00 0.00 88 1017.5
20260831094000 74 321 2.0 3.0 0.00 0.00 0.00 88 1017.4
20260831093556 74 351 2.0 3.0 0.00 0.00 0.00 88 1017.3
20260831093457 74 12 1.0 3.0 0.00 0.00 0.00 88 1017.4
20260831093157 74 360 2.0 3.0 0.00 0.00 0.00 88 1017.4
20260831092856 74 13 1.0 3.0 0.00 0.00 0.00 88 1017.2
20260831092656 74 345 2.0 3.0 0.00 0.00 0.00 88 1017.2
20260831092556 74 13 2.0 3.0 0.00 0.00 0.00 88 1017.2
20260831092458 74 11 1.0 3.0 0.00 0.00 0.00 88 1017.1
20260831092356 74 15 0.0 3.0 0.00 0.00 0.00 88 1017.2
20260831092057 74 115 0.0 3.0 0.00 0.00 0.00 88 1017.1
20260831091959 74 11 0.0 3.0 0.00 0.00 0.00 88 1017.2
20260831091856 74 352 1.0 3.0 0.00 0.00 0.00 88 1017.2
20260831091756 74 333 2.0 3.0 0.00 0.00 0.00 88 1017.2
20260831091657 74 4 1.0 3.0 0.00 0.00 0.00 88 1017.2
20260831091458 74 51 0.0 3.0 0.00 0.00 0.00 88 1017.2
20260831091356 74 31 1.0 3.0 0.00 0.00 0.00 88 1017.3
20260831091257 74 340 0.0 3.0 0.00 0.00 0.00 88 1017.2
20260831091057 74 17 0.0 3.0 0.00 0.00 0.00 88 1017.2
20260831090959 74 32 1.0 3.0 0.00 0.00 0.00 88 1017.2
20260831090856 75 27 0.0 3.0 0.00 0.00 0.00 88 1017.1
20260831090756 74 11 0.0 3.0 0.00 0.00 0.00 88 1017.2
20260831090656 75 34 2.0 3.0 0.00 0.00 0.00 88 1017.3
20260831090557 74 79 3.0 3.0 0.00 0.00 0.00 88 1017.2
20260831090458 74 353 0.0 3.0 0.00 0.00 0.00 88 1017.3
20260831090356 74 360 2.0 3.0 0.00 0.00 0.00 88 1017.3
20260831090156 75 24 0.0 3.0 0.00 0.00 0.00 88 1017.3
20260831090057 75 345 0.0 4.0 0.00 0.00 0.00 88 1017.3
20260831090000 75 345 0.0 4.0 0.00 0.00 0.00 88 1017.4
20260831085857 75 55 0.0 4.0 0.00 0.00 0.00 87 1017.3
20260831085659 75 15 2.0 4.0 0.00 0.00 0.00 87 1017.3
20260831085356 75 349 0.0 4.0 0.00 0.00 0.00 87 1017.4
20260831085256 75 356 1.0 4.0 0.00 0.00 0.00 87 1017.4
20260831085156 75 85 2.0 3.0 0.00 0.00 0.00 87 1017.3
20260831085056 75 342 0.0 3.0 0.00 0.00 0.00 87 1017.4
20260831084856 75 18 0.0 3.0 0.00 0.00 0.00 87 1017.4
20260831084756 75 48 0.0 3.0 0.00 0.00 0.00 87 1017.4
20260831084556 75 356 1.0 3.0 0.00 0.00 0.00 87 1017.4
20260831084457 75 20 2.0 3.0 0.00 0.00 0.00 87 1017.4
20260831084356 75 360 2.0 4.0 0.00 0.00 0.00 87 1017.3
20260831084256 75 354 0.0 4.0 0.00 0.00 0.00 87 1017.4
20260831084156 75 338 2.0 4.0 0.00 0.00 0.00 87 1017.4
20260831084056 75 65 0.0 4.0 0.00 0.00 0.00 87 1017.4
20260831084000 75 328 0.0 4.0 0.00 0.00 0.00 87 1017.3
20260831083756 75 356 1.0 4.0 0.00 0.00 0.00 87 1017.4
20260831083656 75 13 2.0 4.0 0.00 0.00 0.00 87 1017.4
20260831083556 75 4 3.0 3.0 0.00 0.00 0.00 87 1017.3
20260831083457 75 1 2.0 3.0 0.00 0.00 0.00 87 1017.4
20260831083356 75 360 2.0 3.0 0.00 0.00 0.00 87 1017.2
20260831083256 75 340 2.0 3.0 0.00 0.00 0.00 87 1017.3
20260831083157 75 337 1.0 3.0 0.00 0.00 0.00 87 1017.3
20260831083057 75 323 0.0 3.0 0.00 0.00 0.00 87 1017.3
20260831083000 75 70 0.0 3.0 0.00 0.00 0.00 87 1017.2
20260831082857 75 60 0.0 3.0 0.00 0.00 0.00 87 1017.2
20260831082758 75 349 2.0 3.0 0.00 0.00 0.00 87 1017.2
20260831082658 75 300 1.0 3.0 0.00 0.00 0.00 87 1017.1
20260831082556 75 316 0.0 3.0 0.00 0.00 0.00 87 1017.1
20260831082457 75 360 0.0 3.0 0.00 0.00 0.00 87 1017.2
20260831082357 75 20 1.0 3.0 0.00 0.00 0.00 87 1017.2
20260831082157 75 127 0.0 3.0 0.00 0.00 0.00 87 1017.2
20260831082056 75 127 0.0 3.0 0.00 0.00 0.00 87 1017.3
20260831081856 75 11 0.0 3.0 0.00 0.00 0.00 86 1017.2
20260831081757 75 333 1.0 3.0 0.00 0.00 0.00 86 1017.3
20260831081557 75 328 2.0 3.0 0.00 0.00 0.00 86 1017.3
20260831081458 75 139 1.0 3.0 0.00 0.00 0.00 86 1017.3
20260831081357 75 358 2.0 3.0 0.00 0.00 0.00 86 1017.2
20260831081257 75 8 1.0 4.0 0.00 0.00 0.00 86 1017.3
20260831081156 75 337 1.0 4.0 0.00 0.00 0.00 86 1017.3
20260831081057 75 340 1.0 4.0 0.00 0.00 0.00 86 1017.3
20260831080959 75 328 0.0 4.0 0.00 0.00 0.00 86 1017.4
20260831080857 75 317 0.0 4.0 0.00 0.00 0.00 86 1017.4
20260831080757 75 304 0.0 4.0 0.00 0.00 0.00 86 1017.4
20260831080556 75 333 0.0 4.0 0.00 0.00 0.00 86 1017.4
20260831080457 75 337 2.0 4.0 0.00 0.00 0.00 86 1017.4
20260831080257 75 349 3.0 3.0 0.00 0.00 0.00 86 1017.3
20260831080057 75 352 3.0 3.0 0.00 0.00 0.00 86 1017.3
20260831075958 75 356 1.0 4.0 0.00 0.00 0.00 86 1017.3
20260831075857 76 347 2.0 4.0 0.00 0.00 0.00 86 1017.3
20260831075756 76 137 0.0 4.0 0.00 0.00 0.00 86 1017.2
20260831075656 76 333 1.0 4.0 0.00 0.00 0.00 86 1017.3
20260831075556 76 345 1.0 4.0 0.00 0.00 0.00 86 1017.3
20260831075457 76 328 2.0 4.0 0.00 0.00 0.00 86 1017.3
20260831075357 76 330 3.0 5.0 0.00 0.00 0.00 85 1017.3
20260831075157 76 355 3.0 5.0 0.00 0.00 0.00 85 1017.4
20260831075056 76 349 3.0 5.0 0.00 0.00 0.00 85 1017.4
20260831075000 76 316 0.0 5.0 0.00 0.00 0.00 85 1017.4
20260831074856 76 3 2.0 5.0 0.00 0.00 0.00 85 1017.5
20260831074756 76 359 2.0 5.0 0.00 0.00 0.00 85 1017.4
20260831074656 76 85 2.0 5.0 0.00 0.00 0.00 85 1017.4
20260831074555 76 338 2.0 5.0 0.00 0.00 0.00 85 1017.4
20260831074457 76 303 0.0 4.0 0.00 0.00 0.00 85 1017.5
20260831073857 76 304 1.0 4.0 0.00 0.00 0.00 85 1017.4
20260831073758 76 326 0.0 4.0 0.00 0.00 0.00 85 1017.4
20260831073556 76 321 2.0 3.0 0.00 0.00 0.00 85 1017.4
20260831073357 76 342 1.0 3.0 0.00 0.00 0.00 85 1017.4
20260831073256 76 347 0.0 3.0 0.00 0.00 0.00 85 1017.3
20260831073156 76 360 3.0 3.0 0.00 0.00 0.00 85 1017.4
20260831073056 76 326 2.0 3.0 0.00 0.00 0.00 85 1017.4
20260831072959 76 340 2.0 3.0 0.00 0.00 0.00 85 1017.3
20260831072855 76 337 3.0 3.0 0.00 0.00 0.00 85 1017.4
20260831072756 76 328 2.0 3.0 0.00 0.00 0.00 85 1017.3
20260831072657 76 340 0.0 3.0 0.00 0.00 0.00 85 1017.3
20260831072556 76 345 2.0 3.0 0.00 0.00 0.00 85 1017.3
20260831072459 76 333 0.0 3.0 0.00 0.00 0.00 85 1017.3
20260831072356 76 349 1.0 3.0 0.00 0.00 0.00 85 1017.3
20260831072256 76 6 3.0 3.0 0.00 0.00 0.00 85 1017.3
20260831072157 76 340 2.0 3.0 0.00 0.00 0.00 85 1017.3
20260831072056 76 309 3.0 3.0 0.00 0.00 0.00 85 1017.4
20260831072000 76 354 2.0 3.0 0.00 0.00 0.00 85 1017.3
20260831071857 76 330 0.0 3.0 0.00 0.00 0.00 85 1017.4
20260831071757 76 337 0.0 3.0 0.00 0.00 0.00 85 1017.4
20260831071656 76 338 2.0 3.0 0.00 0.00 0.00 85 1017.3
20260831071556 76 354 2.0 3.0 0.00 0.00 0.00 85 1017.4
20260831071458 76 349 2.0 3.0 0.00 0.00 0.00 85 1017.4
20260831071356 76 346 1.0 3.0 0.00 0.00 0.00 85 1017.4
20260831071156 76 342 2.0 4.0 0.00 0.00 0.00 84 1017.4
20260831071057 76 323 2.0 4.0 0.00 0.00 0.00 84 1017.4
20260831071000 76 347 2.0 4.0 0.00 0.00 0.00 84 1017.3
20260831070857 76 338 2.0 4.0 0.00 0.00 0.00 84 1017.3
20260831070656 76 342 2.0 4.0 0.00 0.00 0.00 84 1017.4
20260831070556 76 340 1.0 4.0 0.00 0.00 0.00 84 1017.3
20260831070458 76 338 2.0 4.0 0.00 0.00 0.00 84 1017.4
20260831070357 76 13 3.0 4.0 0.00 0.00 0.00 84 1017.4
20260831070257 76 352 0.0 3.0 0.00 0.00 0.00 84 1017.3
20260831070155 76 356 3.0 3.0 0.00 0.00 0.00 84 1017.4
20260831070057 76 360 3.0 3.0 0.00 0.00 0.00 84 1017.4
20260831070002 76 19 0.0 3.0 0.00 0.00 0.00 84 1017.4
20260831065857 76 300 0.0 3.0 0.00 0.00 0.00 84 1017.5
20260831065756 76 316 0.0 3.0 0.00 0.00 0.00 84 1017.6
20260831065656 76 300 2.0 3.0 0.00 0.00 0.00 84 1017.5
20260831065555 76 316 1.0 3.0 0.00 0.00 0.00 84 1017.5
20260831065458 76 333 2.0 3.0 0.00 0.00 0.00 84 1017.5
20260831065155 76 321 2.0 3.0 0.00 0.00 0.00 84 1017.5
20260831065055 76 314 3.0 3.0 0.00 0.00 0.00 84 1017.5
20260831064959 76 340 1.0 3.0 0.00 0.00 0.00 84 1017.5
20260831064856 76 328 3.0 3.0 0.00 0.00 0.00 84 1017.6
20260831064755 76 319 2.0 3.0 0.00 0.00 0.00 84 1017.6
20260831064656 76 335 3.0 3.0 0.00 0.00 0.00 84 1017.6
20260831064555 76 338 2.0 3.0 0.00 0.00 0.00 84 1017.5
20260831064458 76 349 2.0 3.0 0.00 0.00 0.00 84 1017.5
20260831064356 76 328 2.0 3.0 0.00 0.00 0.00 84 1017.5
20260831064256 76 319 2.0 3.0 0.00 0.00 0.00 84 1017.6
20260831064156 76 286 3.0 3.0 0.00 0.00 0.00 84 1017.5
20260831063857 76 360 2.0 3.0 0.00 0.00 0.00 84 1017.6
20260831063756 76 323 1.0 3.0 0.00 0.00 0.00 84 1017.6
20260831063657 76 337 2.0 3.0 0.00 0.00 0.00 84 1017.5
20260831063557 76 345 2.0 3.0 0.00 0.00 0.00 84 1017.6
20260831063457 77 344 2.0 3.0 0.00 0.00 0.00 84 1017.5
20260831063356 77 342 2.0 3.0 0.00 0.00 0.00 84 1017.5
20260831063257 77 342 0.0 3.0 0.00 0.00 0.00 84 1017.6
20260831063157 77 349 2.0 3.0 0.00 0.00 0.00 84 1017.6
20260831063057 77 331 1.0 3.0 0.00 0.00 0.00 84 1017.7
20260831063000 77 333 0.0 3.0 0.00 0.00 0.00 83 1017.6
20260831062858 77 311 2.0 3.0 0.00 0.00 0.00 83 1017.7
20260831062756 77 345 2.0 3.0 0.00 0.00 0.00 83 1017.7
20260831062658 77 8 2.0 3.0 0.00 0.00 0.00 83 1017.7
20260831062357 77 317 0.0 2.0 0.00 0.00 0.00 83 1017.7
20260831062157 77 317 0.0 3.0 0.00 0.00 0.00 83 1017.7
20260831061959 77 335 2.0 3.0 0.00 0.00 0.00 83 1017.6
20260831061856 77 333 0.0 3.0 0.00 0.00 0.00 83 1017.6
20260831061757 77 330 2.0 3.0 0.00 0.00 0.00 83 1017.5
20260831061557 77 310 0.0 3.0 0.00 0.00 0.00 83 1017.6
20260831061457 77 349 2.0 3.0 0.00 0.00 0.00 83 1017.6
20260831061355 77 333 0.0 3.0 0.00 0.00 0.00 83 1017.6
20260831061255 77 25 1.0 3.0 0.00 0.00 0.00 83 1017.6
20260831061056 77 360 0.0 3.0 0.00 0.00 0.00 83 1017.5
20260831060756 77 20 2.0 3.0 0.00 0.00 0.00 83 1017.5
20260831060556 77 335 2.0 3.0 0.00 0.00 0.00 83 1017.5
20260831060457 77 323 1.0 2.0 0.00 0.00 0.00 83 1017.6
20260831060356 77 342 0.0 2.0 0.00 0.00 0.00 83 1017.5
20260831060156 77 345 0.0 2.0 0.00 0.00 0.00 83 1017.5
20260831060059 77 329 0.0 3.0 0.00 0.00 0.00 83 1017.5
20260831060002 77 294 1.0 3.0 0.00 0.00 0.00 83 1017.4
20260831055857 77 340 0.0 3.0 0.00 0.00 0.00 83 1017.5
20260831055757 77 321 1.0 3.0 0.00 0.00 0.00 83 1017.4
20260831055556 77 356 0.0 3.0 0.00 0.00 0.00 83 1017.4
20260831055355 77 360 0.0 3.0 0.00 0.00 0.00 83 1017.4
20260831055258 77 331 2.0 3.0 0.00 0.00 0.00 83 1017.4
20260831055157 77 22 0.0 3.0 0.00 0.00 0.00 83 1017.5
20260831055056 77 25 3.0 3.0 0.00 0.00 0.00 83 1017.5
20260831054958 77 25 1.0 3.0 0.00 0.00 0.00 82 1017.6
20260831054856 77 353 1.0 3.0 0.00 0.00 0.00 82 1017.5
20260831054756 77 6 1.0 3.0 0.00 0.00 0.00 82 1017.6
20260831054656 77 333 2.0 3.0 0.00 0.00 0.00 83 1017.6
20260831054556 77 328 0.0 3.0 0.00 0.00 0.00 82 1017.6
20260831054357 77 353 0.0 3.0 0.00 0.00 0.00 82 1017.6
20260831054257 77 358 1.0 3.0 0.00 0.00 0.00 82 1017.6
20260831054156 77 323 0.0 3.0 0.00 0.00 0.00 82 1017.7
20260831054057 77 360 0.0 3.0 0.00 0.00 0.00 82 1017.7
20260831053959 77 342 1.0 3.0 0.00 0.00 0.00 82 1017.7
20260831053856 77 345 2.0 3.0 0.00 0.00 0.00 82 1017.7
20260831053757 77 358 0.0 3.0 0.00 0.00 0.00 82 1017.7
20260831053655 77 328 2.0 3.0 0.00 0.00 0.00 82 1017.7
20260831053457 77 342 2.0 3.0 0.00 0.00 0.00 82 1017.6
20260831053356 77 338 1.0 3.0 0.00 0.00 0.00 82 1017.6
20260831053157 77 340 0.0 3.0 0.00 0.00 0.00 82 1017.6
20260831053057 77 20 0.0 3.0 0.00 0.00 0.00 82 1017.6
20260831052959 77 356 0.0 3.0 0.00 0.00 0.00 82 1017.5
20260831052856 77 319 1.0 3.0 0.00 0.00 0.00 82 1017.5
20260831052756 77 338 0.0 3.0 0.00 0.00 0.00 82 1017.6
20260831052459 77 336 1.0 3.0 0.00 0.00 0.00 82 1017.6
20260831052357 77 335 3.0 3.0 0.00 0.00 0.00 82 1017.6
20260831052056 77 344 3.0 3.0 0.00 0.00 0.00 82 1017.5
20260831052000 77 321 0.0 3.0 0.00 0.00 0.00 82 1017.7
20260831051758 77 352 2.0 3.0 0.00 0.00 0.00 81 1017.6
20260831051657 77 326 2.0 3.0 0.00 0.00 0.00 81 1017.6
20260831051556 77 347 2.0 3.0 0.00 0.00 0.00 81 1017.6
20260831051357 77 338 0.0 3.0 0.00 0.00 0.00 81 1017.7
20260831051256 77 316 2.0 3.0 0.00 0.00 0.00 81 1017.7
20260831051157 77 333 2.0 3.0 0.00 0.00 0.00 81 1017.6
20260831051056 77 356 3.0 3.0 0.00 0.00 0.00 81 1017.6
20260831051000 77 330 2.0 3.0 0.00 0.00 0.00 81 1017.6
20260831050857 77 345 2.0 3.0 0.00 0.00 0.00 81 1017.6
20260831050756 77 347 2.0 3.0 0.00 0.00 0.00 81 1017.6
20260831050656 77 328 0.0 3.0 0.00 0.00 0.00 81 1017.5
20260831050557 77 329 2.0 3.0 0.00 0.00 0.00 81 1017.5
20260831050357 77 338 2.0 4.0 0.00 0.00 0.00 81 1017.5
20260831050258 77 359 2.0 4.0 0.00 0.00 0.00 81 1017.6
20260831050157 77 330 2.0 4.0 0.00 0.00 0.00 81 1017.6
20260831050057 77 347 2.0 4.0 0.00 0.00 0.00 81 1017.6
20260831050004 78 351 2.0 4.0 0.00 0.00 0.00 81 1017.5
20260831045900 78 87 0.0 4.0 0.00 0.00 0.00 81 1017.6
20260831045758 78 347 2.0 4.0 0.00 0.00 0.00 81 1017.6
20260831045559 78 3 3.0 4.0 0.00 0.00 0.00 81 1017.6
20260831045503 77 338 2.0 3.0 0.00 0.00 0.00 81 1017.6
20260831045400 78 352 2.0 3.0 0.00 0.00 0.00 81 1017.7
20260831045259 78 356 2.0 3.0 0.00 0.00 0.00 81 1017.7
20260831045159 78 344 1.0 3.0 0.00 0.00 0.00 81 1017.6
20260831045100 78 331 0.0 3.0 0.00 0.00 0.00 81 1017.6
20260831045005 78 356 2.0 3.0 0.00 0.00 0.00 81 1017.6
20260831044859 78 323 0.0 3.0 0.00 0.00 0.00 81 1017.6
20260831044700 78 335 0.0 3.0 0.00 0.00 0.00 80 1017.6
20260831044559 78 335 2.0 3.0 0.00 0.00 0.00 80 1017.6
20260831044501 78 307 1.0 3.0 0.00 0.00 0.00 80 1017.7
20260831044158 78 337 2.0 3.0 0.00 0.00 0.00 80 1017.7
20260831044100 78 335 2.0 3.0 0.00 0.00 0.00 80 1017.7
20260831044004 78 335 0.0 3.0 0.00 0.00 0.00 80 1017.7
20260831043859 78 347 0.0 3.0 0.00 0.00 0.00 80 1017.7
20260831043800 78 39 2.0 3.0 0.00 0.00 0.00 80 1017.7
20260831043501 78 336 2.0 3.0 0.00 0.00 0.00 80 1017.7
20260831043300 78 20 0.0 3.0 0.00 0.00 0.00 80 1017.7
20260831043003 78 338 0.0 3.0 0.00 0.00 0.00 80 1017.6
20260831042859 78 342 2.0 3.0 0.00 0.00 0.00 80 1017.6
20260831042600 78 312 0.0 3.0 0.00 0.00 0.00 80 1017.6
20260831042503 78 359 0.0 3.0 0.00 0.00 0.00 80 1017.6
20260831042400 78 351 1.0 3.0 0.00 0.00 0.00 80 1017.6
20260831042259 78 349 2.0 3.0 0.00 0.00 0.00 80 1017.6
20260831042200 78 323 1.0 3.0 0.00 0.00 0.00 80 1017.6
20260831042059 78 8 3.0 3.0 0.00 0.00 0.00 80 1017.6
20260831042005 78 312 0.0 3.0 0.00 0.00 0.00 80 1017.6
20260831041900 78 335 0.0 3.0 0.00 0.00 0.00 80 1017.6
20260831041800 78 352 2.0 3.0 0.00 0.00 0.00 80 1017.6
20260831041700 78 333 1.0 3.0 0.00 0.00 0.00 80 1017.6
20260831041504 78 340 2.0 3.0 0.00 0.00 0.00 80 1017.7
20260831041400 78 356 3.0 3.0 0.00 0.00 0.00 80 1017.6
20260831041259 78 330 2.0 3.0 0.00 0.00 0.00 80 1017.7
20260831041159 78 303 0.0 3.0 0.00 0.00 0.00 80 1017.7
20260831041004 78 294 0.0 3.0 0.00 0.00 0.00 79 1017.6
20260831040801 78 321 2.0 3.0 0.00 0.00 0.00 79 1017.7
20260831040659 78 302 2.0 3.0 0.00 0.00 0.00 79 1017.8
20260831040600 78 352 0.0 3.0 0.00 0.00 0.00 79 1017.8
20260831040500 78 323 0.0 3.0 0.00 0.00 0.00 79 1017.7
20260831040359 78 354 2.0 3.0 0.00 0.00 0.00 79 1017.8
20260831040259 78 305 2.0 3.0 0.00 0.00 0.00 79 1017.8
20260831040100 78 352 3.0 3.0 0.00 0.00 0.00 79 1017.7
20260831040004 78 43 0.0 3.0 0.00 0.00 0.00 79 1017.8
20260831035858 78 43 0.0 3.0 0.00 0.00 0.00 79 1017.8
20260831035758 78 344 1.0 3.0 0.00 0.00 0.00 79 1017.9
20260831035657 78 358 0.0 3.0 0.00 0.00 0.00 79 1017.9
20260831035600 78 285 0.0 3.0 0.00 0.00 0.00 79 1017.9
20260831035500 78 316 0.0 3.0 0.00 0.00 0.00 79 1017.9
20260831035358 78 359 0.0 3.0 0.00 0.00 0.00 79 1017.9
20260831035159 78 312 2.0 3.0 0.00 0.00 0.00 79 1017.9
20260831034858 78 303 2.0 3.0 0.00 0.00 0.00 79 1017.9
20260831034758 78 304 1.0 3.0 0.00 0.00 0.00 79 1017.9
20260831034658 78 328 2.0 3.0 0.00 0.00 0.00 79 1017.9
20260831034559 78 331 0.0 3.0 0.00 0.00 0.00 79 1017.9
20260831034500 78 347 0.0 3.0 0.00 0.00 0.00 79 1017.9
20260831034400 78 282 2.0 3.0 0.00 0.00 0.00 79 1017.8
20260831034258 78 328 1.0 3.0 0.00 0.00 0.00 79 1017.9
20260831034158 78 331 2.0 3.0 0.00 0.00 0.00 79 1017.8
20260831034059 78 295 1.0 3.0 0.00 0.00 0.00 79 1017.9
20260831034004 78 321 1.0 3.0 0.00 0.00 0.00 79 1017.9
20260831033858 78 310 1.0 3.0 0.00 0.00 0.00 79 1017.8
20260831033758 79 328 2.0 3.0 0.00 0.00 0.00 79 1017.8
20260831033658 79 326 1.0 3.0 0.00 0.00 0.00 79 1017.9
20260831033600 79 314 2.0 3.0 0.00 0.00 0.00 79 1017.9
20260831033500 79 314 2.0 3.0 0.00 0.00 0.00 79 1017.9
20260831033259 79 328 1.0 3.0 0.00 0.00 0.00 79 1018.0
20260831033003 79 321 2.0 3.0 0.00 0.00 0.00 79 1017.9
20260831032858 79 328 2.0 3.0 0.00 0.00 0.00 79 1017.9
20260831032759 79 310 2.0 3.0 0.00 0.00 0.00 78 1017.9
20260831032659 79 335 2.0 3.0 0.00 0.00 0.00 78 1017.9
20260831032602 79 319 2.0 3.0 0.00 0.00 0.00 78 1017.9
20260831032506 79 333 2.0 3.0 0.00 0.00 0.00 78 1017.9
20260831032259 79 323 1.0 3.0 0.00 0.00 0.00 78 1017.9
20260831032159 79 333 2.0 3.0 0.00 0.00 0.00 78 1017.9
20260831032004 79 333 0.0 3.0 0.00 0.00 0.00 78 1017.9
20260831031800 79 314 2.0 3.0 0.00 0.00 0.00 78 1017.8
20260831031701 79 347 3.0 3.0 0.00 0.00 0.00 78 1017.8
20260831031600 79 106 0.0 3.0 0.00 0.00 0.00 78 1017.8
20260831031502 79 26 3.0 3.0 0.00 0.00 0.00 78 1017.9
20260831031400 79 338 1.0 3.0 0.00 0.00 0.00 78 1017.9
20260831031300 79 310 0.0 3.0 0.00 0.00 0.00 78 1017.9
20260831031159 79 319 1.0 3.0 0.00 0.00 0.00 78 1017.9
20260831031100 79 312 1.0 3.0 0.00 0.00 0.00 78 1017.9
20260831031005 79 300 1.0 3.0 0.00 0.00 0.00 78 1017.9
20260831030900 79 142 0.0 4.0 0.00 0.00 0.00 78 1018.0
20260831030759 79 304 0.0 4.0 0.00 0.00 0.00 77 1017.9
20260831030700 79 310 2.0 4.0 0.00 0.00 0.00 77 1018.0
20260831030559 79 317 2.0 4.0 0.00 0.00 0.00 77 1018.0
20260831030500 79 340 2.0 4.0 0.00 0.00 0.00 77 1018.0
20260831030400 79 328 2.0 4.0 0.00 0.00 0.00 77 1018.1
20260831030259 79 333 2.0 4.0 0.00 0.00 0.00 77 1018.0
20260831030159 80 347 2.0 4.0 0.00 0.00 0.00 77 1017.9
20260831030059 80 1 0.0 4.0 0.00 0.00 0.00 77 1018.0
20260831030007 80 335 2.0 4.0 0.00 0.00 0.00 77 1018.0
20260831025858 80 342 2.0 4.0 0.00 0.00 0.00 77 1018.0
20260831025759 80 347 3.0 4.0 0.00 0.00 0.00 77 1017.9
20260831025658 80 349 2.0 4.0 0.00 0.00 0.00 77 1017.9
20260831025600 80 330 0.0 4.0 0.00 0.00 0.00 77 1018.0
20260831025500 80 15 2.0 4.0 0.00 0.00 0.00 77 1018.0
20260831025358 80 25 1.0 4.0 0.00 0.00 0.00 77 1017.9
20260831025258 80 326 0.0 4.0 0.00 0.00 0.00 77 1017.9
20260831025158 80 12 1.0 4.0 0.00 0.00 0.00 77 1017.9
20260831024700 80 293 0.0 4.0 0.00 0.00 0.00 77 1017.9
20260831024558 80 359 3.0 4.0 0.00 0.00 0.00 78 1017.9
20260831024358 80 22 0.0 4.0 0.00 0.00 0.00 78 1018.0
20260831024258 80 352 3.0 4.0 0.00 0.00 0.00 78 1018.0
20260831024200 80 342 2.0 3.0 0.00 0.00 0.00 78 1018.0
20260831024006 80 347 2.0 4.0 0.00 0.00 0.00 78 1018.0
20260831023859 80 3 2.0 4.0 0.00 0.00 0.00 78 1017.9
20260831023758 80 8 0.0 4.0 0.00 0.00 0.00 78 1018.0
20260831023658 80 352 3.0 4.0 0.00 0.00 0.00 78 1018.0
20260831023600 80 349 2.0 4.0 0.00 0.00 0.00 78 1018.0
20260831023358 80 326 3.0 4.0 0.00 0.00 0.00 78 1018.0
20260831023259 80 321 0.0 4.0 0.00 0.00 0.00 78 1018.1
20260831023158 80 354 3.0 4.0 0.00 0.00 0.00 78 1018.0
20260831023100 80 20 2.0 4.0 0.00 0.00 0.00 78 1017.9
20260831023005 80 335 1.0 4.0 0.00 0.00 0.00 77 1017.9
20260831022859 80 335 2.0 3.0 0.00 0.00 0.00 77 1018.0
20260831022659 80 23 0.0 3.0 0.00 0.00 0.00 77 1018.0
20260831022558 80 295 1.0 3.0 0.00 0.00 0.00 77 1018.1
20260831022503 80 360 2.0 3.0 0.00 0.00 0.00 77 1018.0
20260831022359 80 340 1.0 3.0 0.00 0.00 0.00 77 1018.0
20260831022258 80 336 2.0 3.0 0.00 0.00 0.00 77 1018.1
20260831022159 80 335 3.0 3.0 0.00 0.00 0.00 77 1018.0
20260831022100 80 354 1.0 3.0 0.00 0.00 0.00 77 1018.1
20260831022005 80 338 2.0 3.0 0.00 0.00 0.00 77 1018.0
20260831021858 80 336 2.0 3.0 0.00 0.00 0.00 77 1018.0
20260831021803 80 331 2.0 3.0 0.00 0.00 0.00 77 1017.9
20260831021700 80 316 2.0 3.0 0.00 0.00 0.00 77 1018.0
20260831021559 81 352 2.0 3.0 0.00 0.00 0.00 77 1018.0
20260831021500 81 312 0.0 4.0 0.00 0.00 0.00 76 1017.9
20260831021259 81 356 2.0 4.0 0.00 0.00 0.00 76 1017.9
20260831021159 81 322 2.0 4.0 0.00 0.00 0.00 76 1017.9
20260831021059 81 356 3.0 4.0 0.00 0.00 0.00 76 1017.9
20260831021001 81 345 2.0 4.0 0.00 0.00 0.00 76 1017.8
20260831020658 81 356 0.0 4.0 0.00 0.00 0.00 76 1017.9
20260831020559 81 358 3.0 4.0 0.00 0.00 0.00 76 1017.8
20260831020459 81 345 3.0 4.0 0.00 0.00 0.00 76 1017.9
20260831020358 81 338 2.0 4.0 0.00 0.00 0.00 76 1017.8
20260831020307 81 329 0.0 4.0 0.00 0.00 0.00 76 1017.9
20260831020159 81 319 3.0 4.0 0.00 0.00 0.00 75 1017.9
20260831020059 81 349 2.0 4.0 0.00 0.00 0.00 75 1017.9
20260831020004 81 356 2.0 4.0 0.00 0.00 0.00 75 1017.9
20260831015858 81 354 4.0 4.0 0.00 0.00 0.00 75 1017.9
20260831015803 81 342 2.0 5.0 0.00 0.00 0.00 75 1018.0
20260831015658 81 335 3.0 5.0 0.00 0.00 0.00 75 1017.9
20260831015559 81 343 3.0 5.0 0.00 0.00 0.00 75 1017.9
20260831015500 81 307 1.0 5.0 0.00 0.00 0.00 75 1017.9
20260831015301 81 326 3.0 5.0 0.00 0.00 0.00 75 1017.9
20260831015207 81 314 2.0 5.0 0.00 0.00 0.00 75 1017.9
20260831015058 82 324 2.0 5.0 0.00 0.00 0.00 74 1017.8
20260831014859 82 302 3.0 5.0 0.00 0.00 0.00 74 1017.8
20260831014759 82 316 2.0 4.0 0.00 0.00 0.00 74 1017.8
20260831014657 82 296 0.0 4.0 0.00 0.00 0.00 74 1017.8
20260831014559 82 326 2.0 4.0 0.00 0.00 0.00 74 1017.7
20260831014459 82 328 2.0 4.0 0.00 0.00 0.00 74 1017.7
20260831014259 82 333 2.0 4.0 0.00 0.00 0.00 74 1017.7
20260831014200 82 302 0.0 4.0 0.00 0.00 0.00 74 1017.7
20260831014004 82 342 3.0 4.0 0.00 0.00 0.00 73 1017.7
20260831013858 82 315 1.0 4.0 0.00 0.00 0.00 73 1017.7
20260831013758 82 316 0.0 4.0 0.00 0.00 0.00 73 1017.7
20260831013658 82 295 2.0 4.0 0.00 0.00 0.00 73 1017.7
20260831013558 82 309 2.0 4.0 0.00 0.00 0.00 73 1017.7
20260831013358 82 38 0.0 4.0 0.00 0.00 0.00 73 1017.7
20260831013158 82 296 0.0 4.0 0.00 0.00 0.00 72 1017.8
20260831013059 82 3 1.0 4.0 0.00 0.00 0.00 72 1017.7
20260831013004 82 46 1.0 5.0 0.00 0.00 0.00 72 1017.7
20260831012559 82 340 3.0 5.0 0.00 0.00 0.00 72 1017.7
20260831012359 82 319 3.0 5.0 0.00 0.00 0.00 71 1017.7
20260831012259 82 358 4.0 5.0 0.00 0.00 0.00 71 1017.7
20260831012159 83 20 2.0 5.0 0.00 0.00 0.00 71 1017.7
20260831012059 83 347 3.0 5.0 0.00 0.00 0.00 71 1017.7